M I D A S
Marine Information and Data Acquisition System
Tripno 967 of the Zeeleeuw from 2005-10-05 06:27:00 to 2005-10-05 19:20:00
Back to CruiseResearch ActivitiesStationsMapUnderway DataData graphs

EquipmentUnitsComment
TimeDGPSUTC
LatitudeDGPSDM.mWGS84
LongitudeDGPSDM.mWGS84
TemperatureSBE03/SBE38deg celciusITS90
ConductivitySBE21S/mITS90
SalinitySBE21 Practical Salinity Units
ChlorophylAChelsea fluorimeterg/lCalibrated in Aceton
Missing or incorrect values are displayed as -999
Sea surface data collected by the RV Zeeleeuw from 2005-10-05 06:27:00 to 2005-10-05 19:20:00
                                                                                    Next 1000 lines
Time Latitude Longitude Temperature Conductivity Salinity ChlorophylA
2005-10-05 06:27:26 51°15.121 2°54.303 -999 0.010961 0.063308 -0.343027
2005-10-05 06:27:31 51°15.136 2°54.291 -999 0.010961 0.063308 -0.343027
2005-10-05 06:27:36 51°15.151 2°54.278 -999 0.010961 0.063309 -0.376736
2005-10-05 06:27:40 51°15.163 2°54.269 -999 0.010961 0.063311 -0.343027
2005-10-05 06:27:46 51°15.181 2°54.255 -999 0.010961 0.063311 -0.343027
2005-10-05 06:27:51 51°15.196 2°54.243 -999 0.010961 0.063312 -0.343027
2005-10-05 06:27:56 51°15.211 2°54.232 -999 0.010961 0.063314 -0.376736
2005-10-05 06:28:00 51°15.223 2°54.222 -999 0.010961 0.063315 -0.343027
2005-10-05 06:28:06 51°15.242 2°54.207 -999 0.010961 0.063317 -0.376736
2005-10-05 06:28:11 51°15.257 2°54.193 -999 0.010961 0.063318 -0.376736
2005-10-05 06:28:16 51°15.272 2°54.18 -999 0.010961 0.063318 -0.376736
2005-10-05 06:28:20 51°15.285 2°54.169 -999 0.010961 0.063319 -0.343027
2005-10-05 06:28:26 51°15.303 2°54.153 -999 0.010961 0.06332 -0.376736
2005-10-05 06:28:31 51°15.318 2°54.141 -999 0.010961 0.063322 -0.376736
2005-10-05 06:28:36 51°15.334 2°54.128 -999 0.010961 0.063324 -0.376736
2005-10-05 06:28:40 51°15.346 2°54.118 -999 0.010961 0.063325 -0.343027
2005-10-05 06:28:46 51°15.364 2°54.103 -999 0.010961 0.063325 -0.343027
2005-10-05 06:28:51 51°15.38 2°54.091 -999 0.010961 0.063327 -0.343027
2005-10-05 06:28:56 51°15.395 2°54.079 -999 0.010961 0.063327 -0.376736
2005-10-05 06:29:00 51°15.408 2°54.069 -999 0.010961 0.063328 -0.376736
2005-10-05 06:29:06 51°15.426 2°54.054 -999 0.010961 0.06333 -0.343027
2005-10-05 06:29:11 51°15.442 2°54.041 -999 0.010961 0.063332 -0.376736
2005-10-05 06:29:16 51°15.457 2°54.027 -999 0.010961 0.063332 -0.376736
2005-10-05 06:29:20 51°15.469 2°54.016 -999 0.010961 0.063333 -0.376736
2005-10-05 06:29:26 51°15.488 2°54 -999 0.010961 0.063335 -0.376736
2005-10-05 06:29:31 51°15.503 2°53.988 -999 0.010961 0.063336 -0.343027
2005-10-05 06:29:36 51°15.518 2°53.975 -999 0.010961 0.063337 -0.376736
2005-10-05 06:29:40 51°15.531 2°53.964 -999 0.010961 0.063339 -0.376736
2005-10-05 06:29:46 51°15.549 2°53.948 -999 0.010961 0.063339 -0.376736
2005-10-05 06:29:51 51°15.564 2°53.935 -999 0.010961 0.06334 -0.376736
2005-10-05 06:29:56 51°15.58 2°53.923 -999 0.010961 0.063342 -0.376736
2005-10-05 06:30:00 51°15.592 2°53.913 -999 0.010961 0.063344 -0.376736
2005-10-05 06:30:06 51°15.611 2°53.899 -999 0.010961 0.063345 -0.343027
2005-10-05 06:30:11 51°15.626 2°53.886 -999 0.010961 0.063346 -0.376736
2005-10-05 06:30:16 51°15.642 2°53.874 -999 0.010961 0.063346 -0.376736
2005-10-05 06:30:20 51°15.654 2°53.865 -999 0.010961 0.063347 -0.376736
2005-10-05 06:30:26 51°15.673 2°53.852 -999 0.010961 0.063348 -0.343027
2005-10-05 06:30:32 51°15.692 2°53.839 -999 0.010961 0.063349 -0.343027
2005-10-05 06:30:36 51°15.705 2°53.831 -999 0.010961 0.063351 -0.343027
2005-10-05 06:30:40 51°15.717 2°53.823 -999 0.010961 0.063352 -0.343027
2005-10-05 06:30:46 51°15.736 2°53.809 -999 0.010961 0.063352 -0.343027
2005-10-05 06:30:51 51°15.752 2°53.798 -999 0.010961 0.063353 -0.343027
2005-10-05 06:30:56 51°15.767 2°53.786 -999 0.010961 0.063355 -0.343027
2005-10-05 06:31:01 51°15.783 2°53.775 -999 0.010961 0.063356 -0.376736
2005-10-05 06:31:06 51°15.799 2°53.764 -999 0.010961 0.063357 -0.376736
2005-10-05 06:31:11 51°15.815 2°53.754 -999 0.010961 0.063359 -0.343027
2005-10-05 06:31:16 51°15.831 2°53.743 -999 0.010961 0.063359 -0.343027
2005-10-05 06:31:20 51°15.843 2°53.736 -999 0.010961 0.06336 -0.343027
2005-10-05 06:31:26 51°15.862 2°53.722 -999 0.010961 0.063362 -0.376736
2005-10-05 06:31:31 51°15.878 2°53.712 -999 0.010961 0.063363 -0.376736
2005-10-05 06:31:36 51°15.894 2°53.7 -999 0.010961 0.063365 -0.376736
2005-10-05 06:31:41 51°15.909 2°53.689 -999 0.010961 0.063366 -0.376736
2005-10-05 06:31:46 51°15.925 2°53.678 -999 0.010961 0.063366 -0.376736
2005-10-05 06:31:51 51°15.941 2°53.667 -999 0.010961 0.063367 -0.343027
2005-10-05 06:31:56 51°15.957 2°53.655 -999 0.010961 0.063369 -0.376736
2005-10-05 06:32:01 51°15.972 2°53.644 -999 0.010961 0.06337 -0.343027
2005-10-05 06:32:06 51°15.988 2°53.632 -999 0.010961 0.063372 -0.376736
2005-10-05 06:32:11 51°16.004 2°53.622 -999 0.010961 0.063373 -0.343027
2005-10-05 06:32:16 51°16.02 2°53.611 -999 0.010961 0.063373 -0.343027
2005-10-05 06:32:21 51°16.035 2°53.601 -999 0.010961 0.063375 -0.376736
2005-10-05 06:32:26 51°16.051 2°53.59 -999 0.010961 0.063375 -0.376736
2005-10-05 06:32:31 51°16.067 2°53.58 -999 0.010961 0.063377 -0.376736
2005-10-05 06:32:36 51°16.083 2°53.569 -999 0.010961 0.063378 -0.376736
2005-10-05 06:32:40 51°16.095 2°53.56 -999 0.010961 0.06338 -0.376736
2005-10-05 06:32:46 51°16.114 2°53.547 -999 0.010961 0.06338 -0.376736
2005-10-05 06:32:51 51°16.131 2°53.537 -999 0.010961 0.063382 -0.343027
2005-10-05 06:32:56 51°16.147 2°53.526 -999 0.010961 0.063383 -0.376736
2005-10-05 06:33:00 51°16.159 2°53.517 -999 0.010961 0.063385 -0.376736
2005-10-05 06:33:06 51°16.179 2°53.504 -999 0.010961 0.063385 -0.376736
2005-10-05 06:33:11 51°16.194 2°53.492 -999 0.010961 0.063387 -0.376736
2005-10-05 06:33:16 51°16.211 2°53.482 -999 0.010961 0.063387 -0.376736
2005-10-05 06:33:20 51°16.224 2°53.473 -999 0.010961 0.063388 -0.376736
2005-10-05 06:33:26 51°16.243 2°53.46 -999 0.010961 0.06339 -0.376736
2005-10-05 06:33:31 51°16.26 2°53.449 -999 0.010961 0.063392 -0.376736
2005-10-05 06:33:36 51°16.276 2°53.438 -999 0.010961 0.063393 -0.343027
2005-10-05 06:33:40 51°16.289 2°53.43 -999 0.010961 0.063395 -0.376736
2005-10-05 06:33:46 51°16.308 2°53.415 -999 0.010961 0.063395 -0.376736
2005-10-05 06:33:51 51°16.325 2°53.405 -999 0.010961 0.063396 -0.376736
2005-10-05 06:33:56 51°16.341 2°53.394 -999 0.010961 0.063398 -0.343027
2005-10-05 06:34:01 51°16.357 2°53.383 -999 0.010961 0.063399 -0.376736
2005-10-05 06:34:06 51°16.373 2°53.372 -999 0.010961 0.0634 -0.343027
2005-10-05 06:34:11 51°16.389 2°53.359 -999 0.010961 0.063401 -0.376736
2005-10-05 06:34:16 51°16.406 2°53.348 -999 0.010961 0.063401 -0.376736
2005-10-05 06:34:21 51°16.422 2°53.337 -999 0.010961 0.063403 -0.343027
2005-10-05 06:34:26 51°16.438 2°53.326 -999 0.010961 0.063405 -0.376736
2005-10-05 06:34:31 51°16.454 2°53.314 -999 0.010961 0.063405 -0.343027
2005-10-05 06:34:36 51°16.471 2°53.303 -999 0.010961 0.063407 -0.343027
2005-10-05 06:34:41 51°16.487 2°53.292 -999 0.010961 0.063408 -0.376736
2005-10-05 06:34:46 51°16.503 2°53.281 -999 0.010961 0.063408 -0.376736
2005-10-05 06:34:51 51°16.519 2°53.269 -999 0.010961 0.06341 -0.343027
2005-10-05 06:34:56 51°16.536 2°53.258 -999 0.010961 0.063412 -0.343027
2005-10-05 06:35:00 51°16.549 2°53.249 -999 0.010961 0.063414 -0.343027
2005-10-05 06:35:06 51°16.568 2°53.236 -999 0.010961 0.063415 -0.376736
2005-10-05 06:35:11 51°16.585 2°53.225 -999 0.010961 0.063415 -0.343027
2005-10-05 06:35:16 51°16.601 2°53.213 -999 0.010961 0.063415 -0.343027
2005-10-05 06:35:20 51°16.614 2°53.204 -999 0.010961 0.063416 -0.376736
2005-10-05 06:35:26 51°16.634 2°53.191 -999 0.010961 0.063418 -0.376736
2005-10-05 06:35:31 51°16.65 2°53.18 -999 0.010961 0.063419 -0.376736
2005-10-05 06:35:36 51°16.667 2°53.17 -999 0.010961 0.063421 -0.343027
2005-10-05 06:35:41 51°16.683 2°53.16 -999 0.010961 0.063423 -0.376736
2005-10-05 06:35:46 51°16.7 2°53.15 -999 0.010961 0.063423 -0.376736
2005-10-05 06:35:51 51°16.716 2°53.14 -999 0.010961 0.063424 -0.343027
2005-10-05 06:35:56 51°16.733 2°53.129 -999 0.010961 0.063425 -0.376736
2005-10-05 06:36:01 51°16.749 2°53.12 -999 0.010961 0.063426 -0.376736
2005-10-05 06:36:06 51°16.766 2°53.11 -999 0.010961 0.063427 -0.376736
2005-10-05 06:36:11 51°16.782 2°53.101 -999 0.010961 0.063428 -0.376736
2005-10-05 06:36:16 51°16.799 2°53.089 -999 0.010961 0.063428 -0.376736
2005-10-05 06:36:21 51°16.815 2°53.079 -999 0.010961 0.06343 -0.376736
2005-10-05 06:36:26 51°16.831 2°53.069 -999 0.010961 0.063432 -0.376736
2005-10-05 06:36:31 51°16.848 2°53.06 -999 0.010961 0.063433 -0.376736
2005-10-05 06:36:36 51°16.864 2°53.051 -999 0.010961 0.063433 -0.343027
2005-10-05 06:36:40 51°16.877 2°53.046 -999 0.010961 0.063435 -0.343027
2005-10-05 06:36:46 51°16.896 2°53.035 -999 0.010961 0.063435 -0.343027
2005-10-05 06:36:51 51°16.911 2°53.027 -999 0.010961 0.063438 -0.376736
2005-10-05 06:36:56 51°16.926 2°53.018 -999 0.010961 0.063437 -0.376736
2005-10-05 06:37:00 51°16.939 2°53.011 -999 0.010961 0.063437 -0.376736
2005-10-05 06:37:06 51°16.958 2°53 -999 0.010961 0.063439 -0.376736
2005-10-05 06:37:11 51°16.974 2°52.99 -999 0.010961 0.06344 -0.343027
2005-10-05 06:37:16 51°16.989 2°52.981 -999 0.010961 0.06344 -0.343027
2005-10-05 06:37:21 51°17.005 2°52.973 -999 0.010961 0.063441 -0.343027
2005-10-05 06:37:26 51°17.022 2°52.964 -999 0.010961 0.063443 -0.376736
2005-10-05 06:37:31 51°17.038 2°52.955 -999 0.010961 0.063445 -0.343027
2005-10-05 06:37:36 51°17.054 2°52.945 -999 0.010961 0.063446 -0.343027
2005-10-05 06:37:41 51°17.07 2°52.936 -999 0.010961 0.063447 -0.376736
2005-10-05 06:37:46 51°17.087 2°52.927 -999 0.010961 0.063447 -0.376736
2005-10-05 06:37:51 51°17.103 2°52.92 -999 0.010961 0.063448 -0.376736
2005-10-05 06:37:56 51°17.121 2°52.913 -999 0.010961 0.063449 -0.376736
2005-10-05 06:38:01 51°17.138 2°52.908 -999 0.010961 0.063451 -0.376736
2005-10-05 06:38:06 51°17.155 2°52.905 -999 0.010961 0.063452 -0.376736
2005-10-05 06:38:11 51°17.172 2°52.906 -999 0.010961 0.063454 -0.376736
2005-10-05 06:38:16 51°17.189 2°52.908 -999 0.010961 0.063454 -0.376736
2005-10-05 06:38:21 51°17.205 2°52.913 -999 0.010961 0.063454 -0.343027
2005-10-05 06:38:26 51°17.221 2°52.921 -999 0.010961 0.063455 -0.376736
2005-10-05 06:38:31 51°17.236 2°52.931 -999 0.010961 0.063455 -0.343027
2005-10-05 06:38:36 51°17.251 2°52.941 -999 0.010961 0.063456 -0.376736
2005-10-05 06:38:40 51°17.262 2°52.953 -999 0.010961 0.063458 -0.376736
2005-10-05 06:38:46 51°17.277 2°52.97 -999 0.010961 0.063458 -0.376736
2005-10-05 06:38:51 51°17.29 2°52.987 -999 0.010961 0.06346 -0.376736
2005-10-05 06:38:56 51°17.301 2°53.005 -999 0.010961 0.063459 -0.376736
2005-10-05 06:39:01 51°17.312 2°53.022 -999 0.010961 0.06346 -0.376736
2005-10-05 06:39:06 51°17.323 2°53.042 -999 0.010961 0.063462 -0.343027
2005-10-05 06:39:11 51°17.334 2°53.06 -999 0.010961 0.063462 -0.376736
2005-10-05 06:39:16 51°17.344 2°53.08 -999 0.010961 0.063462 -0.376736
2005-10-05 06:39:20 51°17.354 2°53.095 -999 0.010961 0.063465 -0.376736
2005-10-05 06:39:26 51°17.367 2°53.117 -999 0.010961 0.063467 -0.343027
2005-10-05 06:39:31 51°17.379 2°53.135 -999 0.010961 0.06347 -0.376736
2005-10-05 06:39:36 51°17.391 2°53.152 -999 0.010961 0.063472 -0.376736
2005-10-05 06:39:40 51°17.4 2°53.166 -999 0.010961 0.063473 -0.343027
2005-10-05 06:39:46 51°17.414 2°53.188 -999 0.010961 0.063473 -0.343027
2005-10-05 06:39:51 51°17.425 2°53.207 -999 0.010961 0.063474 -0.343027
2005-10-05 06:39:56 51°17.436 2°53.226 -999 0.010961 0.063476 -0.343027
2005-10-05 06:40:01 51°17.446 2°53.245 -999 0.010961 0.063476 -0.376736
2005-10-05 06:40:06 51°17.457 2°53.265 -999 0.010961 0.063478 -0.376736
2005-10-05 06:40:11 51°17.467 2°53.284 -999 0.010961 0.06348 -0.376736
2005-10-05 06:40:16 51°17.478 2°53.303 -999 0.010961 0.06348 -0.376736
2005-10-05 06:40:20 51°17.487 2°53.318 -999 0.010961 0.063483 -0.376736
2005-10-05 06:40:26 51°17.501 2°53.34 -999 0.010961 0.063485 -0.343027
2005-10-05 06:40:31 51°17.513 2°53.357 -999 0.010961 0.063487 -0.376736
2005-10-05 06:40:36 51°17.525 2°53.375 -999 0.010961 0.063488 -0.376736
2005-10-05 06:40:40 51°17.534 2°53.389 -999 0.010961 0.063489 -0.376736
2005-10-05 06:40:46 51°17.548 2°53.411 -999 0.010961 0.063489 -0.376736
2005-10-05 06:40:51 51°17.56 2°53.43 -999 0.010961 0.06349 -0.376736
2005-10-05 06:40:56 51°17.571 2°53.449 -999 0.010961 0.063491 -0.343027
2005-10-05 06:41:01 51°17.582 2°53.467 -999 0.010961 0.063491 -0.343027
2005-10-05 06:41:06 51°17.593 2°53.486 -999 0.010961 0.063493 -0.376736
2005-10-05 06:41:11 51°17.605 2°53.504 -999 0.010961 0.063494 -0.376736
2005-10-05 06:41:16 51°17.616 2°53.523 -999 0.010961 0.063494 -0.376736
2005-10-05 06:41:21 51°17.628 2°53.541 -999 0.010961 0.063495 -0.376736
2005-10-05 06:41:26 51°17.639 2°53.559 -999 0.010961 0.063496 -0.376736
2005-10-05 06:41:31 51°17.651 2°53.578 -999 0.010961 0.063497 -0.376736
2005-10-05 06:41:36 51°17.662 2°53.596 -999 0.010961 0.063498 -0.376736
2005-10-05 06:41:41 51°17.673 2°53.614 -999 0.010961 0.063499 -0.376736
2005-10-05 06:41:46 51°17.684 2°53.634 -999 0.010961 0.063499 -0.376736
2005-10-05 06:41:51 51°17.694 2°53.653 -999 0.010961 0.063501 -0.343027
2005-10-05 06:41:56 51°17.704 2°53.674 -999 0.010961 0.063502 -0.376736
2005-10-05 06:42:00 51°17.712 2°53.69 -999 0.010961 0.063503 -0.376736
2005-10-05 06:42:06 51°17.724 2°53.714 -999 0.010961 0.063504 -0.343027
2005-10-05 06:42:11 51°17.734 2°53.734 -999 0.010961 0.063505 -0.343027
2005-10-05 06:42:16 51°17.745 2°53.754 -999 0.010961 0.063505 -0.343027
2005-10-05 06:42:20 51°17.753 2°53.769 -999 0.010961 0.063507 -0.343027
2005-10-05 06:42:26 51°17.766 2°53.792 -999 0.010961 0.063508 -0.343027
2005-10-05 06:42:31 51°17.777 2°53.811 -999 0.010961 0.063508 -0.376736
2005-10-05 06:42:36 51°17.787 2°53.831 -999 0.010961 0.063509 -0.343027
2005-10-05 06:42:40 51°17.796 2°53.847 -999 0.010961 0.063509 -0.343027
2005-10-05 06:42:46 51°17.808 2°53.87 -999 0.010961 0.063509 -0.343027
2005-10-05 06:42:51 51°17.818 2°53.89 -999 0.010961 0.06351 -0.376736
2005-10-05 06:42:56 51°17.829 2°53.91 -999 0.010961 0.063511 -0.376736
2005-10-05 06:43:00 51°17.837 2°53.926 -999 0.010961 0.063512 -0.376736
2005-10-05 06:43:06 51°17.849 2°53.949 -999 0.010961 0.063513 -0.376736
2005-10-05 06:43:11 51°17.859 2°53.97 -999 0.010961 0.063515 -0.376736
2005-10-05 06:43:16 51°17.87 2°53.989 -999 0.010961 0.063515 -0.376736
2005-10-05 06:43:21 51°17.88 2°54.009 -999 0.010961 0.063516 -0.376736
2005-10-05 06:43:26 51°17.89 2°54.029 -999 0.010961 0.063517 -0.376736
2005-10-05 06:43:31 51°17.9 2°54.048 -999 0.010961 0.063518 -0.376736
2005-10-05 06:43:36 51°17.911 2°54.068 -999 0.010961 0.063519 -0.376736
2005-10-05 06:43:41 51°17.921 2°54.088 -999 0.010961 0.06352 -0.376736
2005-10-05 06:43:46 51°17.931 2°54.108 -999 0.010961 0.06352 -0.376736
2005-10-05 06:43:51 51°17.942 2°54.128 -999 0.010961 0.063521 -0.376736
2005-10-05 06:43:56 51°17.952 2°54.147 -999 0.010961 0.063522 -0.376736
2005-10-05 06:44:00 51°17.96 2°54.163 -999 0.010961 0.063523 -0.376736
2005-10-05 06:44:06 51°17.973 2°54.187 -999 0.010961 0.063524 -0.343027
2005-10-05 06:44:11 51°17.983 2°54.207 -999 0.010961 0.063526 -0.376736
2005-10-05 06:44:16 51°17.994 2°54.227 -999 0.010961 0.063526 -0.376736
2005-10-05 06:44:21 51°18.003 2°54.247 -999 0.010961 0.063528 -0.376736
2005-10-05 06:44:26 51°18.014 2°54.267 -999 0.010961 0.063529 -0.376736
2005-10-05 06:44:31 51°18.024 2°54.287 -999 0.010961 0.063529 -0.343027
2005-10-05 06:44:36 51°18.035 2°54.306 -999 0.010961 0.063531 -0.376736
2005-10-05 06:44:40 51°18.044 2°54.321 -999 0.010961 0.063532 -0.376736
2005-10-05 06:44:46 51°18.056 2°54.344 -999 0.010961 0.063532 -0.376736
2005-10-05 06:44:51 51°18.067 2°54.363 -999 0.010961 0.063533 -0.376736
2005-10-05 06:44:56 51°18.078 2°54.382 -999 0.010961 0.063534 -0.376736
2005-10-05 06:45:00 51°18.086 2°54.397 -999 0.010961 0.063535 -0.376736
2005-10-05 06:45:06 51°18.099 2°54.421 -999 0.010961 0.063537 -0.376736
2005-10-05 06:45:11 51°18.109 2°54.44 -999 0.010961 0.063538 -0.376736
2005-10-05 06:45:16 51°18.119 2°54.46 -999 0.010961 0.063538 -0.376736
2005-10-05 06:45:20 51°18.127 2°54.476 -999 0.010961 0.063539 -0.343027
2005-10-05 06:45:26 51°18.14 2°54.5 -999 0.010961 0.06354 -0.376736
2005-10-05 06:45:31 51°18.15 2°54.52 -999 0.010961 0.063541 -0.376736
2005-10-05 06:45:36 51°18.16 2°54.54 -999 0.010961 0.063542 -0.376736
2005-10-05 06:45:40 51°18.168 2°54.556 -999 0.010961 0.063543 -0.376736
2005-10-05 06:45:46 51°18.181 2°54.578 -999 0.010961 0.063543 -0.376736
2005-10-05 06:45:51 51°18.191 2°54.598 -999 0.010961 0.063544 -0.376736
2005-10-05 06:45:56 51°18.201 2°54.617 -999 0.010961 0.063545 -0.376736
2005-10-05 06:46:01 51°18.212 2°54.636 -999 0.010961 0.063547 -0.376736
2005-10-05 06:46:06 51°18.222 2°54.655 -999 0.010961 0.063548 -0.376736
2005-10-05 06:46:11 51°18.233 2°54.674 -999 0.010961 0.06355 -0.343027
2005-10-05 06:46:16 51°18.243 2°54.693 -999 0.010961 0.06355 -0.343027
2005-10-05 06:46:20 51°18.252 2°54.709 -999 0.010961 0.06355 -0.343027
2005-10-05 06:46:26 51°18.264 2°54.732 -999 0.010961 0.063551 -0.376736
2005-10-05 06:46:31 51°18.275 2°54.751 -999 0.010859 0.06299 -0.376736
2005-10-05 06:46:36 51°18.285 2°54.77 -999 0.010961 0.063552 -0.376736
2005-10-05 06:46:40 51°18.293 2°54.786 -999 0.010859 0.062992 -0.376736
2005-10-05 06:46:46 51°18.305 2°54.809 -999 0.010859 0.062992 -0.376736
2005-10-05 06:46:51 51°18.315 2°54.829 -999 0.010859 0.062993 -0.376736
2005-10-05 06:46:56 51°18.325 2°54.849 -999 0.010961 0.063556 -0.376736
2005-10-05 06:47:00 51°18.334 2°54.864 -999 0.010859 0.062996 -0.376736
2005-10-05 06:47:06 51°18.346 2°54.887 -999 0.010859 0.062997 -0.343027
2005-10-05 06:47:11 51°18.357 2°54.906 -999 0.010859 0.063016 -0.376736
2005-10-05 06:47:16 51°18.368 2°54.924 -999 0.010859 0.063016 -0.376736
2005-10-05 06:47:20 51°18.376 2°54.939 -999 0.010859 0.063065 -0.376736
2005-10-05 06:47:26 51°18.389 2°54.962 -999 0.243616 1.479486 -0.343027
2005-10-05 06:47:31 51°18.399 2°54.981 -999 3.524686 23.819539 1.342443
2005-10-05 06:47:36 51°18.41 2°55.001 -999 3.81118 26.092492 -0.073352
2005-10-05 06:47:40 51°18.418 2°55.016 -999 3.94404 27.733876 -0.511574
2005-10-05 06:47:46 51°18.43 2°55.04 -999 3.94404 27.733876 -0.511574
2005-10-05 06:47:51 51°18.441 2°55.059 -999 4.136044 30.288211 -0.477864
2005-10-05 06:47:56 51°18.451 2°55.078 -999 4.157108 31.284467 -0.612702
2005-10-05 06:48:00 51°18.459 2°55.094 -999 4.140836 31.597552 -0.71383
2005-10-05 06:48:06 51°18.472 2°55.117 -999 4.110048 31.712958 -0.74754
2005-10-05 06:48:11 51°18.482 2°55.136 -999 4.089005 31.744092 -0.74754
2005-10-05 06:48:16 51°18.492 2°55.155 -999 4.089005 31.744092 -0.74754
2005-10-05 06:48:20 51°18.501 2°55.171 -999 4.072628 31.760372 -0.74754
2005-10-05 06:48:26 51°18.513 2°55.194 -999 4.061848 31.77654 -0.781249
2005-10-05 06:48:31 51°18.523 2°55.214 -999 4.049305 31.726766 -0.781249
2005-10-05 06:48:36 51°18.534 2°55.234 -999 4.034585 31.646799 -0.781249
2005-10-05 06:48:40 51°18.542 2°55.249 -999 4.028159 31.630821 -0.74754
2005-10-05 06:48:46 51°18.554 2°55.272 -999 4.028159 31.630821 -0.74754
2005-10-05 06:48:51 51°18.565 2°55.291 -999 4.018933 31.570828 -0.781249
2005-10-05 06:48:56 51°18.575 2°55.311 -999 4.025672 31.654551 -0.781249
2005-10-05 06:49:00 51°18.584 2°55.326 -999 4.02505 31.680381 -0.781249
2005-10-05 06:49:06 51°18.596 2°55.349 -999 4.005666 31.531806 -0.781249
2005-10-05 06:49:11 51°18.607 2°55.368 -999 4.010538 31.592129 -0.781249
2005-10-05 06:49:16 51°18.617 2°55.388 -999 4.010538 31.592129 -0.781249
2005-10-05 06:49:20 51°18.625 2°55.403 -999 4.014478 31.64107 -0.781249
2005-10-05 06:49:26 51°18.637 2°55.427 -999 4.004319 31.560313 -0.781249
2005-10-05 06:49:31 51°18.647 2°55.447 -999 4.01085 31.626821 -0.781249
2005-10-05 06:49:36 51°18.657 2°55.467 -999 4.011368 31.639215 -0.814958
2005-10-05 06:49:40 51°18.665 2°55.482 -999 4.009192 31.622038 -0.814958
2005-10-05 06:49:46 51°18.678 2°55.504 -999 4.009192 31.622038 -0.814958
2005-10-05 06:49:51 51°18.689 2°55.523 -999 4.012923 31.657461 -0.814958
2005-10-05 06:49:56 51°18.7 2°55.541 -999 3.991467 31.471476 -0.814958
2005-10-05 06:50:00 51°18.709 2°55.556 -999 3.992607 31.492553 -0.814958
2005-10-05 06:50:06 51°18.722 2°55.578 -999 3.994369 31.523025 -0.814958
2005-10-05 06:50:11 51°18.732 2°55.598 -999 4.000278 31.585442 -0.814958
2005-10-05 06:50:16 51°18.742 2°55.617 -999 4.000278 31.585442 -0.814958
2005-10-05 06:50:21 51°18.752 2°55.636 -999 4.006083 31.641763 -0.814958
2005-10-05 06:50:26 51°18.762 2°55.655 -999 4.005253 31.634463 -0.814958
2005-10-05 06:50:31 51°18.773 2°55.673 -999 4.001936 31.599382 -0.814958
2005-10-05 06:50:36 51°18.783 2°55.692 -999 3.996339 31.546869 -0.814958
2005-10-05 06:50:41 51°18.794 2°55.711 -999 3.995717 31.544008 -0.814958
2005-10-05 06:50:46 51°18.804 2°55.73 -999 3.995717 31.544008 -0.814958
2005-10-05 06:50:51 51°18.813 2°55.751 -999 4.001418 31.594822 -0.848668
2005-10-05 06:50:56 51°18.822 2°55.771 -999 3.997375 31.559904 -0.848668
2005-10-05 06:51:01 51°18.831 2°55.792 -999 3.997065 31.559127 -0.848668
2005-10-05 06:51:06 51°18.84 2°55.812 -999 3.995406 31.547797 -0.848668
2005-10-05 06:51:11 51°18.85 2°55.832 -999 3.987218 31.476407 -0.848668
2005-10-05 06:51:16 51°18.859 2°55.853 -999 3.987218 31.476407 -0.848668
2005-10-05 06:51:20 51°18.866 2°55.869 -999 3.992607 31.519912 -0.848668
2005-10-05 06:51:26 51°18.876 2°55.894 -999 3.984626 31.449059 -0.848668
2005-10-05 06:51:31 51°18.884 2°55.915 -999 3.974883 31.365986 -0.848668
2005-10-05 06:51:36 51°18.891 2°55.938 -999 3.971152 31.333832 -0.848668
2005-10-05 06:51:41 51°18.897 2°55.96 -999 4.000278 31.591977 -0.848668
2005-10-05 06:51:46 51°18.903 2°55.983 -999 4.000278 31.591977 -0.848668
2005-10-05 06:51:51 51°18.909 2°56.005 -999 3.999449 31.584025 -0.848668
2005-10-05 06:51:56 51°18.915 2°56.027 -999 4.000589 31.590792 -0.882377
2005-10-05 06:52:00 51°18.92 2°56.045 -999 4.000174 31.579304 -0.882377
2005-10-05 06:52:06 51°18.928 2°56.071 -999 3.999863 31.573303 -0.882377
2005-10-05 06:52:11 51°18.934 2°56.094 -999 3.998723 31.565231 -0.882377
2005-10-05 06:52:16 51°18.94 2°56.116 -999 3.998723 31.565231 -0.882377
2005-10-05 06:52:20 51°18.946 2°56.134 -999 3.997894 31.562506 -0.882377
2005-10-05 06:52:26 51°18.954 2°56.16 -999 3.998412 31.57229 -0.882377
2005-10-05 06:52:31 51°18.96 2°56.182 -999 3.99665 31.559396 -0.882377
2005-10-05 06:52:36 51°18.966 2°56.205 -999 3.998205 31.574385 -0.882377
2005-10-05 06:52:41 51°18.972 2°56.227 -999 3.998101 31.574126 -0.882377
2005-10-05 06:52:46 51°18.978 2°56.249 -999 3.998101 31.574126 -0.882377
2005-10-05 06:52:51 51°18.984 2°56.272 -999 3.996339 31.559924 -0.882377
2005-10-05 06:52:56 51°18.99 2°56.296 -999 3.991364 31.516142 -0.882377
2005-10-05 06:53:00 51°18.995 2°56.314 -999 3.997479 31.571919 -0.882377
2005-10-05 06:53:06 51°19.002 2°56.341 -999 3.99665 31.565927 -0.848668
2005-10-05 06:53:11 51°19.008 2°56.364 -999 3.996443 31.563449 -0.882377
2005-10-05 06:53:16 51°19.014 2°56.385 -999 3.996443 31.563449 -0.882377
2005-10-05 06:53:20 51°19.019 2°56.403 -999 3.994059 31.537898 -0.848668
2005-10-05 06:53:26 51°19.027 2°56.429 -999 3.984108 31.447103 -0.848668
2005-10-05 06:53:31 51°19.034 2°56.45 -999 3.996028 31.550659 -0.848668
2005-10-05 06:53:36 51°19.04 2°56.473 -999 3.994473 31.533717 -0.848668
2005-10-05 06:53:41 51°19.047 2°56.495 -999 3.99551 31.544141 -0.848668
2005-10-05 06:53:46 51°19.053 2°56.518 -999 3.99551 31.544141 -0.848668
2005-10-05 06:53:51 51°19.059 2°56.54 -999 3.99468 31.536846 -0.848668
2005-10-05 06:53:56 51°19.064 2°56.563 -999 3.993437 31.524599 -0.848668
2005-10-05 06:54:01 51°19.07 2°56.586 -999 3.994888 31.53606 -0.848668
2005-10-05 06:54:06 51°19.075 2°56.607 -999 3.991882 31.508967 -0.848668
2005-10-05 06:54:11 51°19.081 2°56.63 -999 3.989601 31.488259 -0.814958
2005-10-05 06:54:16 51°19.087 2°56.652 -999 3.989601 31.488259 -0.814958
2005-10-05 06:54:20 51°19.092 2°56.67 -999 3.994369 31.528893 -0.814958
2005-10-05 06:54:26 51°19.1 2°56.696 -999 3.9924 31.508312 -0.814958
2005-10-05 06:54:31 51°19.106 2°56.718 -999 3.996753 31.545297 -0.781249
2005-10-05 06:54:36 51°19.113 2°56.741 -999 3.998619 31.561709 -0.781249
2005-10-05 06:54:40 51°19.118 2°56.758 -999 3.997375 31.553377 -0.781249
2005-10-05 06:54:46 51°19.126 2°56.785 -999 3.997375 31.553377 -0.781249
2005-10-05 06:54:51 51°19.132 2°56.807 -999 3.994266 31.526677 -0.74754
2005-10-05 06:54:56 51°19.139 2°56.829 -999 3.998101 31.562371 -0.74754
2005-10-05 06:55:00 51°19.144 2°56.847 -999 3.995821 31.54231 -0.74754
2005-10-05 06:55:06 51°19.152 2°56.874 -999 3.998412 31.56576 -0.74754
2005-10-05 06:55:11 51°19.158 2°56.896 -999 3.995095 31.534623 -0.74754
2005-10-05 06:55:16 51°19.164 2°56.919 -999 3.995095 31.534623 -0.74754
2005-10-05 06:55:21 51°19.17 2°56.941 -999 3.982035 31.418473 -0.71383
2005-10-05 06:55:26 51°19.176 2°56.964 -999 3.996132 31.540479 -0.74754
2005-10-05 06:55:31 51°19.183 2°56.985 -999 3.994991 31.527843 -0.74754
2005-10-05 06:55:36 51°19.189 2°57.008 -999 3.992711 31.505835 -0.71383
2005-10-05 06:55:40 51°19.195 2°57.025 -999 3.993747 31.51104 -0.71383
2005-10-05 06:55:46 51°19.203 2°57.052 -999 3.993747 31.51104 -0.71383
2005-10-05 06:55:51 51°19.209 2°57.074 -999 3.98815 31.458581 -0.71383
2005-10-05 06:55:56 51°19.216 2°57.096 -999 3.985766 31.436978 -0.71383
2005-10-05 06:56:00 51°19.221 2°57.114 -999 3.991985 31.49034 -0.680121
2005-10-05 06:56:06 51°19.228 2°57.142 -999 3.993022 31.496197 -0.680121
2005-10-05 06:56:11 51°19.234 2°57.163 -999 3.991052 31.477586 -0.680121
2005-10-05 06:56:16 51°19.241 2°57.185 -999 3.991052 31.477586 -0.680121
2005-10-05 06:56:20 51°19.246 2°57.203 -999 3.992089 31.486046 -0.680121
2005-10-05 06:56:26 51°19.253 2°57.231 -999 3.988875 31.455857 -0.680121
2005-10-05 06:56:31 51°19.259 2°57.253 -999 3.991363 31.476417 -0.646411
2005-10-05 06:56:36 51°19.266 2°57.275 -999 3.988046 31.446621 -0.646411
2005-10-05 06:56:40 51°19.27 2°57.293 -999 3.987632 31.44103 -0.612702
2005-10-05 06:56:46 51°19.277 2°57.32 -999 3.987632 31.44103 -0.612702
2005-10-05 06:56:51 51°19.283 2°57.342 -999 3.991156 31.468744 -0.612702
2005-10-05 06:56:56 51°19.29 2°57.364 -999 3.988461 31.445067 -0.612702
2005-10-05 06:57:01 51°19.295 2°57.387 -999 3.990845 31.465362 -0.612702
2005-10-05 06:57:06 51°19.302 2°57.409 -999 3.991467 31.469526 -0.578993
2005-10-05 06:57:11 51°19.307 2°57.431 -999 3.992399 31.475771 -0.545283
2005-10-05 06:57:16 51°19.313 2°57.454 -999 3.992399 31.475771 -0.545283
2005-10-05 06:57:20 51°19.318 2°57.471 -999 3.988875 31.444812 -0.545283
2005-10-05 06:57:26 51°19.325 2°57.498 -999 3.989083 31.445984 -0.511574
2005-10-05 06:57:31 51°19.332 2°57.521 -999 3.990223 31.4547 -0.511574
2005-10-05 06:57:36 51°19.337 2°57.543 -999 3.990637 31.456393 -0.511574
2005-10-05 06:57:41 51°19.344 2°57.566 -999 3.990845 31.456265 -0.511574
2005-10-05 06:57:46 51°19.35 2°57.588 -999 3.990845 31.456265 -0.511574
2005-10-05 06:57:51 51°19.355 2°57.61 -999 3.988979 31.439879 -0.477864
2005-10-05 06:57:56 51°19.361 2°57.633 -999 3.986906 31.420376 -0.477864
2005-10-05 06:58:01 51°19.367 2°57.655 -999 3.989497 31.443132 -0.444155
2005-10-05 06:58:06 51°19.373 2°57.677 -999 3.989704 31.443654 -0.444155
2005-10-05 06:58:11 51°19.379 2°57.699 -999 3.987009 31.418043 -0.410446
2005-10-05 06:58:16 51°19.385 2°57.721 -999 3.987009 31.418043 -0.410446
2005-10-05 06:58:20 51°19.39 2°57.739 -999 3.989082 31.434948 -0.410446
2005-10-05 06:58:26 51°19.398 2°57.765 -999 3.990223 31.443661 -0.376736
2005-10-05 06:58:31 51°19.404 2°57.787 -999 3.99043 31.444833 -0.376736
2005-10-05 06:58:36 51°19.41 2°57.809 -999 3.986595 31.41116 -0.376736
2005-10-05 06:58:40 51°19.415 2°57.827 -999 3.984107 31.388673 -0.376736
2005-10-05 06:58:46 51°19.422 2°57.853 -999 3.984107 31.388673 -0.376736
2005-10-05 06:58:51 51°19.428 2°57.876 -999 3.984522 31.391665 -0.410446
2005-10-05 06:58:56 51°19.434 2°57.897 -999 3.986387 31.406747 -0.410446
2005-10-05 06:59:00 51°19.438 2°57.914 -999 3.987735 31.416631 -0.444155
2005-10-05 06:59:06 51°19.446 2°57.941 -999 3.98732 31.411695 -0.444155
2005-10-05 06:59:11 51°19.452 2°57.962 -999 3.984211 31.383106 -0.444155
2005-10-05 06:59:16 51°19.459 2°57.984 -999 3.984211 31.383106 -0.444155
2005-10-05 06:59:20 51°19.464 2°58.001 -999 3.978199 31.329057 -0.444155
2005-10-05 06:59:26 51°19.471 2°58.027 -999 3.986284 31.398708 -0.477864
2005-10-05 06:59:31 51°19.477 2°58.049 -999 3.987113 31.405986 -0.477864
2005-10-05 06:59:36 51°19.483 2°58.071 -999 3.988046 31.413526 -0.477864
2005-10-05 06:59:40 51°19.487 2°58.088 -999 3.986387 31.398322 -0.477864
2005-10-05 06:59:46 51°19.494 2°58.115 -999 3.986387 31.398322 -0.477864
2005-10-05 06:59:51 51°19.5 2°58.137 -999 3.987942 31.410023 -0.477864
2005-10-05 06:59:56 51°19.506 2°58.158 -999 3.980583 31.345447 -0.477864
2005-10-05 07:00:00 51°19.511 2°58.175 -999 3.987527 31.406385 -0.511574
2005-10-05 07:00:06 51°19.519 2°58.201 -999 3.986076 31.39365 -0.511574
2005-10-05 07:00:11 51°19.525 2°58.222 -999 3.987942 31.409375 -0.477864
2005-10-05 07:00:16 51°19.531 2°58.244 -999 3.987942 31.409375 -0.477864
2005-10-05 07:00:21 51°19.538 2°58.265 -999 3.983899 31.373255 -0.477864
2005-10-05 07:00:26 51°19.544 2°58.287 -999 3.987838 31.40717 -0.444155
2005-10-05 07:00:31 51°19.55 2°58.309 -999 3.987424 31.404179 -0.477864
2005-10-05 07:00:36 51°19.556 2°58.331 -999 3.98732 31.404565 -0.477864
2005-10-05 07:00:40 51°19.56 2°58.348 -999 3.976437 31.309721 -0.511574
2005-10-05 07:00:46 51°19.568 2°58.374 -999 3.976437 31.309721 -0.511574
2005-10-05 07:00:51 51°19.574 2°58.396 -999 3.984729 31.381826 -0.511574
2005-10-05 07:00:56 51°19.58 2°58.417 -999 3.984625 31.379621 -0.511574
2005-10-05 07:01:00 51°19.585 2°58.434 -999 3.978095 31.322331 -0.545283
2005-10-05 07:01:06 51°19.593 2°58.461 -999 3.986283 31.394822 -0.511574
2005-10-05 07:01:11 51°19.599 2°58.482 -999 3.987424 31.406123 -0.511574
2005-10-05 07:01:16 51°19.605 2°58.504 -999 3.987424 31.406123 -0.511574
2005-10-05 07:01:21 51°19.61 2°58.526 -999 3.988771 31.417949 -0.511574
2005-10-05 07:01:26 51°19.616 2°58.548 -999 3.988875 31.418859 -0.511574
2005-10-05 07:01:31 51°19.622 2°58.569 -999 3.990533 31.434063 -0.511574
2005-10-05 07:01:36 51°19.628 2°58.59 -999 3.988046 31.412229 -0.511574
2005-10-05 07:01:40 51°19.632 2°58.608 -999 3.989082 31.42003 -0.511574
2005-10-05 07:01:46 51°19.64 2°58.633 -999 3.989082 31.42003 -0.511574
2005-10-05 07:01:51 51°19.647 2°58.655 -999 3.988149 31.411195 -0.511574
2005-10-05 07:01:56 51°19.653 2°58.676 -999 3.988978 31.418472 -0.511574
2005-10-05 07:02:00 51°19.657 2°58.694 -999 3.989497 31.424966 -0.545283
2005-10-05 07:02:06 51°19.664 2°58.72 -999 3.987838 31.411706 -0.545283
2005-10-05 07:02:12 51°19.671 2°58.746 -999 3.9896 31.429766 -0.545283
2005-10-05 07:02:16 51°19.675 2°58.764 -999 3.9896 31.429766 -0.545283
2005-10-05 07:02:20 51°19.68 2°58.781 -999 3.988046 31.417415 -0.545283
2005-10-05 07:02:26 51°19.687 2°58.806 -999 3.987424 31.412604 -0.545283
2005-10-05 07:02:31 51°19.694 2°58.827 -999 3.989082 31.427811 -0.578993
2005-10-05 07:02:36 51°19.7 2°58.848 -999 3.986802 31.407794 -0.578993
2005-10-05 07:02:40 51°19.705 2°58.865 -999 3.990637 31.440812 -0.578993
2005-10-05 07:02:46 51°19.712 2°58.892 -999 3.990637 31.440812 -0.578993
2005-10-05 07:02:51 51°19.719 2°58.913 -999 3.98929 31.428983 -0.578993
2005-10-05 07:02:56 51°19.724 2°58.934 -999 3.990015 31.435352 -0.578993
2005-10-05 07:03:00 51°19.728 2°58.952 -999 3.989808 31.432883 -0.578993
2005-10-05 07:03:06 51°19.735 2°58.978 -999 3.99157 31.447704 -0.578993
2005-10-05 07:03:11 51°19.741 2°58.999 -999 3.990533 31.438604 -0.612702
2005-10-05 07:03:16 51°19.747 2°59.02 -999 3.990533 31.438604 -0.612702
2005-10-05 07:03:20 51°19.752 2°59.037 -999 3.989393 31.429892 -0.612702
2005-10-05 07:03:26 51°19.759 2°59.063 -999 3.991052 31.444452 -0.612702
2005-10-05 07:03:31 51°19.765 2°59.085 -999 3.990326 31.438082 -0.612702
2005-10-05 07:03:36 51°19.77 2°59.106 -999 3.990119 31.435613 -0.578993
2005-10-05 07:03:41 51°19.776 2°59.128 -999 3.989497 31.430154 -0.612702
2005-10-05 07:03:46 51°19.783 2°59.148 -999 3.989497 31.430154 -0.612702
2005-10-05 07:03:51 51°19.789 2°59.17 -999 3.990326 31.438082 -0.578993
2005-10-05 07:03:56 51°19.795 2°59.192 -999 3.988979 31.424956 -0.578993
2005-10-05 07:04:00 51°19.8 2°59.208 -999 3.988253 31.416642 -0.578993
2005-10-05 07:04:06 51°19.807 2°59.235 -999 3.989186 31.422885 -0.578993
2005-10-05 07:04:11 51°19.813 2°59.255 -999 3.989911 31.431199 -0.578993
2005-10-05 07:04:16 51°19.818 2°59.278 -999 3.989911 31.431199 -0.578993
2005-10-05 07:04:21 51°19.825 2°59.298 -999 3.9896 31.428469 -0.578993
2005-10-05 07:04:26 51°19.83 2°59.32 -999 3.988771 31.421839 -0.612702
2005-10-05 07:04:31 51°19.837 2°59.34 -999 3.988771 31.423136 -0.578993
2005-10-05 07:04:36 51°19.843 2°59.362 -999 3.987527 31.413514 -0.612702
2005-10-05 07:04:40 51°19.848 2°59.378 -999 3.985351 31.394408 -0.612702
2005-10-05 07:04:46 51°19.855 2°59.404 -999 3.985351 31.394408 -0.612702
2005-10-05 07:04:52 51°19.862 2°59.43 -999 3.987631 31.413776 -0.612702
2005-10-05 07:04:56 51°19.867 2°59.447 -999 3.980583 31.352563 -0.612702
2005-10-05 07:05:00 51°19.872 2°59.464 -999 3.988046 31.419361 -0.612702
2005-10-05 07:05:06 51°19.878 2°59.49 -999 3.987735 31.416631 -0.612702
2005-10-05 07:05:11 51°19.884 2°59.511 -999 3.98846 31.423649 -0.612702
2005-10-05 07:05:16 51°19.89 2°59.533 -999 3.98846 31.423649 -0.612702
2005-10-05 07:05:21 51°19.896 2°59.554 -999 3.987838 31.418189 -0.612702
2005-10-05 07:05:26 51°19.902 2°59.575 -999 3.986491 31.407009 -0.612702
2005-10-05 07:05:31 51°19.908 2°59.596 -999 3.985558 31.401412 -0.612702
2005-10-05 07:05:36 51°19.914 2°59.617 -999 3.985247 31.399979 -0.612702
2005-10-05 07:05:42 51°19.922 2°59.643 -999 3.985351 31.400889 -0.612702
2005-10-05 07:05:46 51°19.927 2°59.659 -999 3.985351 31.400889 -0.612702
2005-10-05 07:05:51 51°19.933 2°59.68 -999 3.984522 31.394905 -0.612702
2005-10-05 07:05:56 51°19.939 2°59.701 -999 3.984211 31.392823 -0.578993
2005-10-05 07:06:00 51°19.944 2°59.718 -999 3.984003 31.391003 -0.578993
2005-10-05 07:06:06 51°19.952 2°59.743 -999 3.982863 31.38229 -0.578993
2005-10-05 07:06:11 51°19.958 2°59.764 -999 3.982241 31.378125 -0.545283
2005-10-05 07:06:16 51°19.964 2°59.786 -999 3.982241 31.378125 -0.545283
2005-10-05 07:06:20 51°19.969 2°59.802 -999 3.982345 31.379035 -0.545283
2005-10-05 07:06:26 51°19.976 2°59.828 -999 3.980998 31.367854 -0.545283
2005-10-05 07:06:31 51°19.981 2°59.85 -999 3.980894 31.367591 -0.545283
2005-10-05 07:06:36 51°19.987 2°59.871 -999 3.97965 31.358614 -0.511574
2005-10-05 07:06:41 51°19.993 2°59.893 -999 3.979961 31.361992 -0.511574
2005-10-05 07:06:46 51°20 2°59.913 -999 3.979961 31.361992 -0.511574
2005-10-05 07:06:51 51°20.006 2°59.934 -999 3.97851 31.349899 -0.511574
2005-10-05 07:06:56 51°20.012 2°59.955 -999 3.979443 31.357442 -0.511574
2005-10-05 07:07:00 51°20.017 2°59.972 -999 3.979132 31.354712 -0.511574
2005-10-05 07:07:06 51°20.025 2°59.996 -999 3.978717 31.352367 -0.511574
2005-10-05 07:07:11 51°20.031 3°0.017 -999 3.978821 31.355867 -0.511574
2005-10-05 07:07:16 51°20.037 3°0.038 -999 3.978821 31.355867 -0.511574
2005-10-05 07:07:20 51°20.041 3°0.056 -999 3.978821 31.357809 -0.477864
2005-10-05 07:07:26 51°20.048 3°0.081 -999 3.979443 31.364566 -0.477864
2005-10-05 07:07:31 51°20.054 3°0.102 -999 3.978925 31.36131 -0.477864
2005-10-05 07:07:36 51°20.06 3°0.123 -999 3.978614 31.359875 -0.477864
2005-10-05 07:07:40 51°20.065 3°0.141 -999 3.976748 31.342844 -0.444155
2005-10-05 07:07:46 51°20.073 3°0.165 -999 3.976748 31.342844 -0.444155
2005-10-05 07:07:51 51°20.079 3°0.186 -999 3.978407 31.357407 -0.444155
2005-10-05 07:07:56 51°20.085 3°0.207 -999 3.978096 31.354029 -0.410446
2005-10-05 07:08:01 51°20.092 3°0.228 -999 3.978096 31.352086 -0.410446
2005-10-05 07:08:06 51°20.098 3°0.249 -999 3.975919 31.33168 -0.376736
2005-10-05 07:08:11 51°20.103 3°0.271 -999 3.978199 31.350406 -0.376736
2005-10-05 07:08:16 51°20.109 3°0.292 -999 3.978199 31.350406 -0.376736
2005-10-05 07:08:20 51°20.114 3°0.309 -999 3.978717 31.353662 -0.376736
2005-10-05 07:08:26 51°20.121 3°0.334 -999 3.979132 31.355359 -0.376736
2005-10-05 07:08:31 51°20.127 3°0.356 -999 3.977577 31.340415 -0.376736
2005-10-05 07:08:36 51°20.133 3°0.377 -999 3.978303 31.346138 -0.343027
2005-10-05 07:08:40 51°20.139 3°0.393 -999 3.977888 31.342498 -0.343027
2005-10-05 07:08:46 51°20.145 3°0.419 -999 3.977888 31.342498 -0.343027
2005-10-05 07:08:52 51°20.153 3°0.444 -999 3.953738 31.12996 -0.309317
2005-10-05 07:08:56 51°20.158 3°0.461 -999 3.976748 31.330549 -0.309317
2005-10-05 07:09:00 51°20.163 3°0.478 -999 3.978199 31.342639 -0.309317
2005-10-05 07:09:06 51°20.172 3°0.503 -999 3.979339 31.352 -0.275608
2005-10-05 07:09:11 51°20.179 3°0.523 -999 3.978406 31.341871 -0.275608
2005-10-05 07:09:16 51°20.185 3°0.544 -999 3.978406 31.341871 -0.275608
2005-10-05 07:09:21 51°20.192 3°0.566 -999 3.980272 31.3576 -0.275608
2005-10-05 07:09:26 51°20.197 3°0.588 -999 3.980272 31.356952 -0.275608
2005-10-05 07:09:32 51°20.204 3°0.613 -999 3.980272 31.356305 -0.275608
2005-10-05 07:09:36 51°20.209 3°0.631 -999 3.980376 31.35592 -0.275608
2005-10-05 07:09:40 51°20.214 3°0.648 -999 3.980479 31.354888 -0.275608
2005-10-05 07:09:46 51°20.222 3°0.673 -999 3.980479 31.354888 -0.275608
2005-10-05 07:09:51 51°20.228 3°0.695 -999 3.979235 31.342679 -0.275608
2005-10-05 07:09:56 51°20.235 3°0.716 -999 3.980997 31.356848 -0.241899
2005-10-05 07:10:00 51°20.24 3°0.733 -999 3.979961 31.347105 -0.241899
2005-10-05 07:10:06 51°20.247 3°0.759 -999 3.980894 31.355291 -0.241899
2005-10-05 07:10:11 51°20.253 3°0.781 -999 3.981101 31.357111 -0.241899
2005-10-05 07:10:16 51°20.259 3°0.802 -999 3.981101 31.357111 -0.241899
2005-10-05 07:10:20 51°20.264 3°0.819 -999 3.981101 31.357758 -0.208189
2005-10-05 07:10:26 51°20.271 3°0.845 -999 3.981101 31.358405 -0.208189
2005-10-05 07:10:31 51°20.277 3°0.867 -999 3.980997 31.357495 -0.208189
2005-10-05 07:10:36 51°20.283 3°0.889 -999 3.980997 31.356848 -0.17448
2005-10-05 07:10:40 51°20.287 3°0.907 -999 3.980894 31.355291 -0.17448
2005-10-05 07:10:46 51°20.293 3°0.933 -999 3.980894 31.355291 -0.17448
2005-10-05 07:10:51 51°20.297 3°0.956 -999 3.980997 31.355554 -0.17448
2005-10-05 07:10:56 51°20.302 3°0.978 -999 3.980997 31.35426 -0.14077
2005-10-05 07:11:00 51°20.306 3°0.996 -999 3.981101 31.353229 -0.107061
2005-10-05 07:11:06 51°20.311 3°1.023 -999 3.981101 31.351935 -0.107061
2005-10-05 07:11:12 51°20.317 3°1.049 -999 3.980997 31.350378 -0.107061
2005-10-05 07:11:16 51°20.321 3°1.068 -999 3.980997 31.350378 -0.107061
2005-10-05 07:11:20 51°20.325 3°1.086 -999 3.981205 31.352197 -0.073352
2005-10-05 07:11:26 51°20.331 3°1.112 -999 3.981205 31.352844 -0.073352
2005-10-05 07:11:31 51°20.336 3°1.134 -999 3.981101 31.352582 -0.073352
2005-10-05 07:11:36 51°20.341 3°1.157 -999 3.980997 31.351672 -0.073352
2005-10-05 07:11:41 51°20.346 3°1.179 -999 3.980894 31.35141 -0.039642
2005-10-05 07:11:46 51°20.35 3°1.201 -999 3.980894 31.35141 -0.039642
2005-10-05 07:11:51 51°20.355 3°1.223 -999 3.980997 31.352319 -0.039642
2005-10-05 07:11:56 51°20.36 3°1.246 -999 3.980894 31.35141 -0.039642
2005-10-05 07:12:00 51°20.363 3°1.264 -999 3.980997 31.352966 -0.039642
2005-10-05 07:12:06 51°20.369 3°1.29 -999 3.981101 31.353229 -0.039642
2005-10-05 07:12:11 51°20.373 3°1.313 -999 3.981101 31.353875 -0.039642
2005-10-05 07:12:16 51°20.378 3°1.335 -999 3.981101 31.353875 -0.039642
2005-10-05 07:12:20 51°20.382 3°1.353 -999 3.981205 31.355432 -0.005933
2005-10-05 07:12:26 51°20.388 3°1.379 -999 3.981101 31.355817 0.027777
2005-10-05 07:12:31 51°20.393 3°1.401 -999 3.981101 31.356464 0.061486
2005-10-05 07:12:36 51°20.399 3°1.422 -999 3.981101 31.356464 0.095195
2005-10-05 07:12:40 51°20.403 3°1.44 -999 3.981205 31.357373 0.128905
2005-10-05 07:12:46 51°20.409 3°1.467 -999 3.981205 31.357373 0.128905
2005-10-05 07:12:51 51°20.413 3°1.489 -999 3.981205 31.35802 0.162614
2005-10-05 07:12:56 51°20.418 3°1.512 -999 3.981205 31.35802 0.196324
2005-10-05 07:13:00 51°20.421 3°1.529 -999 3.981308 31.35893 0.196324
2005-10-05 07:13:06 51°20.426 3°1.556 -999 3.981412 31.358545 0.230033
2005-10-05 07:13:11 51°20.431 3°1.579 -999 3.981516 31.358161 0.263742
2005-10-05 07:13:16 51°20.436 3°1.601 -999 3.981516 31.358161 0.263742
2005-10-05 07:13:21 51°20.442 3°1.623 -999 3.981516 31.357514 0.297452
2005-10-05 07:13:26 51°20.447 3°1.644 -999 3.981516 31.357514 0.331161
2005-10-05 07:13:31 51°20.453 3°1.666 -999 3.981516 31.358161 0.364871
2005-10-05 07:13:36 51°20.457 3°1.689 -999 3.981516 31.357514 0.39858
2005-10-05 07:13:40 51°20.461 3°1.707 -999 3.981412 31.357251 0.465999
2005-10-05 07:13:46 51°20.466 3°1.734 -999 3.981412 31.357251 0.465999
2005-10-05 07:13:51 51°20.471 3°1.757 -999 3.981205 31.356079 0.465999
2005-10-05 07:13:56 51°20.475 3°1.779 -999 3.981205 31.355432 0.499708
2005-10-05 07:14:01 51°20.479 3°1.802 -999 3.981308 31.355695 0.499708
2005-10-05 07:14:06 51°20.484 3°1.825 -999 3.981308 31.354401 0.533418
2005-10-05 07:14:12 51°20.49 3°1.852 -999 3.981308 31.353754 0.533418
2005-10-05 07:14:16 51°20.493 3°1.87 -999 3.981308 31.353754 0.533418
2005-10-05 07:14:20 51°20.497 3°1.888 -999 3.981205 31.352844 0.567127
2005-10-05 07:14:26 51°20.503 3°1.915 -999 3.981205 31.352197 0.567127
2005-10-05 07:14:31 51°20.507 3°1.938 -999 3.981101 31.351288 0.600836
2005-10-05 07:14:36 51°20.512 3°1.96 -999 3.981101 31.350641 0.600836
2005-10-05 07:14:40 51°20.516 3°1.978 -999 3.981101 31.350641 0.600836
2005-10-05 07:14:46 51°20.523 3°2.004 -999 3.981101 31.350641 0.600836
2005-10-05 07:14:51 51°20.528 3°2.027 -999 3.980997 31.350378 0.634546
2005-10-05 07:14:56 51°20.533 3°2.05 -999 3.980997 31.350378 0.634546
2005-10-05 07:15:01 51°20.537 3°2.072 -999 3.981101 31.350641 0.600836
2005-10-05 07:15:06 51°20.542 3°2.095 -999 3.981205 31.350904 0.600836
2005-10-05 07:15:11 51°20.546 3°2.117 -999 3.981412 31.352076 0.634546
2005-10-05 07:15:16 51°20.55 3°2.14 -999 3.981412 31.352076 0.634546
2005-10-05 07:15:20 51°20.554 3°2.158 -999 3.981515 31.351691 0.634546
2005-10-05 07:15:26 51°20.56 3°2.185 -999 3.981826 31.351832 0.634546
2005-10-05 07:15:31 51°20.565 3°2.207 -999 3.982034 31.352357 0.634546
2005-10-05 07:15:36 51°20.571 3°2.229 -999 3.982241 31.352883 0.634546
2005-10-05 07:15:41 51°20.576 3°2.251 -999 3.982241 31.352883 0.634546
2005-10-05 07:15:46 51°20.581 3°2.273 -999 3.982241 31.352883 0.634546
2005-10-05 07:15:51 51°20.586 3°2.295 -999 3.982137 31.353267 0.634546
2005-10-05 07:15:56 51°20.591 3°2.318 -999 3.982137 31.353913 0.634546
2005-10-05 07:16:00 51°20.594 3°2.336 -999 3.98193 31.353388 0.634546
2005-10-05 07:16:06 51°20.6 3°2.363 -999 3.98193 31.354035 0.634546
2005-10-05 07:16:11 51°20.605 3°2.385 -999 3.981826 31.352479 0.634546
2005-10-05 07:16:16 51°20.609 3°2.408 -999 3.981826 31.352479 0.634546
2005-10-05 07:16:20 51°20.613 3°2.426 -999 3.98193 31.351448 0.634546
2005-10-05 07:16:26 51°20.619 3°2.453 -999 3.98193 31.350155 0.634546
2005-10-05 07:16:31 51°20.624 3°2.474 -999 3.981826 31.349892 0.600836
2005-10-05 07:16:36 51°20.628 3°2.497 -999 3.981515 31.347811 0.634546
2005-10-05 07:16:40 51°20.632 3°2.515 -999 3.981204 31.34573 0.634546
2005-10-05 07:16:46 51°20.637 3°2.542 -999 3.981204 31.34573 0.634546
2005-10-05 07:16:51 51°20.642 3°2.564 -999 3.981101 31.344821 0.668255
2005-10-05 07:16:56 51°20.647 3°2.586 -999 3.980997 31.342619 0.701965
2005-10-05 07:17:00 51°20.65 3°2.604 -999 3.98079 31.341447 0.735674
2005-10-05 07:17:06 51°20.656 3°2.63 -999 3.980375 31.338456 0.735674
2005-10-05 07:17:11 51°20.661 3°2.652 -999 3.979961 31.335466 0.735674
2005-10-05 07:17:16 51°20.666 3°2.674 -999 3.979961 31.335466 0.735674
2005-10-05 07:17:20 51°20.67 3°2.692 -999 3.978717 31.325848 0.735674
2005-10-05 07:17:26 51°20.676 3°2.719 -999 3.979028 31.328575 0.701965
2005-10-05 07:17:31 51°20.681 3°2.741 -999 3.97851 31.323383 0.668255
2005-10-05 07:17:36 51°20.685 3°2.763 -999 3.977888 31.318574 0.668255
2005-10-05 07:17:41 51°20.69 3°2.786 -999 3.977577 31.316493 0.668255
2005-10-05 07:17:46 51°20.695 3°2.808 -999 3.977577 31.316493 0.668255
2005-10-05 07:17:51 51°20.699 3°2.83 -999 3.977162 31.312856 0.634546
2005-10-05 07:17:56 51°20.704 3°2.852 -999 3.977059 31.311301 0.634546
2005-10-05 07:18:00 51°20.707 3°2.87 -999 3.976955 31.309746 0.634546
2005-10-05 07:18:06 51°20.712 3°2.897 -999 3.976851 31.308837 0.600836
2005-10-05 07:18:11 51°20.716 3°2.919 -999 3.976748 31.307927 0.634546
2005-10-05 07:18:16 51°20.722 3°2.94 -999 3.976748 31.307927 0.634546
2005-10-05 07:18:20 51°20.725 3°2.958 -999 3.976955 31.308454 0.634546
2005-10-05 07:18:26 51°20.731 3°2.984 -999 3.977162 31.308981 0.634546
2005-10-05 07:18:31 51°20.736 3°3.006 -999 3.977266 31.308598 0.634546
2005-10-05 07:18:36 51°20.742 3°3.027 -999 3.977266 31.309244 0.600836
2005-10-05 07:18:41 51°20.748 3°3.048 -999 3.977058 31.308717 0.567127
2005-10-05 07:18:46 51°20.754 3°3.068 -999 3.977058 31.308717 0.567127
2005-10-05 07:18:52 51°20.762 3°3.093 -999 3.976955 31.307163 0.533418
2005-10-05 07:18:56 51°20.767 3°3.11 -999 3.976644 31.305081 0.465999
2005-10-05 07:19:00 51°20.772 3°3.127 -999 3.976437 31.304554 0.39858
2005-10-05 07:19:06 51°20.779 3°3.152 -999 3.976126 31.302473 0.297452
2005-10-05 07:19:11 51°20.785 3°3.174 -999 3.975711 31.300773 0.230033
2005-10-05 07:19:16 51°20.79 3°3.196 -999 3.975711 31.300773 0.230033
2005-10-05 07:19:20 51°20.795 3°3.213 -999 3.9754 31.298692 0.162614
2005-10-05 07:19:26 51°20.803 3°3.238 -999 3.975296 31.297137 0.128905
2005-10-05 07:19:31 51°20.808 3°3.259 -999 3.975089 31.295319 0.027777
2005-10-05 07:19:36 51°20.815 3°3.28 -999 3.974778 31.293883 -0.005933
2005-10-05 07:19:40 51°20.82 3°3.297 -999 3.974675 31.292328 -0.039642
2005-10-05 07:19:46 51°20.827 3°3.323 -999 3.974675 31.292328 -0.039642
2005-10-05 07:19:51 51°20.833 3°3.345 -999 3.974675 31.291682 -0.039642
2005-10-05 07:19:56 51°20.838 3°3.367 -999 3.974571 31.290128 -0.073352
2005-10-05 07:20:01 51°20.844 3°3.388 -999 3.974571 31.289482 -0.073352
2005-10-05 07:20:06 51°20.85 3°3.41 -999 3.974467 31.289864 -0.107061
2005-10-05 07:20:11 51°20.856 3°3.432 -999 3.974364 31.288955 -0.107061
2005-10-05 07:20:16 51°20.862 3°3.454 -999 3.974364 31.288955 -0.107061
2005-10-05 07:20:20 51°20.866 3°3.471 -999 3.97426 31.288691 -0.107061
2005-10-05 07:20:26 51°20.873 3°3.497 -999 3.974156 31.287782 -0.107061
2005-10-05 07:20:31 51°20.879 3°3.519 -999 3.974156 31.287137 -0.073352
2005-10-05 07:20:36 51°20.884 3°3.541 -999 3.974156 31.287137 -0.073352
2005-10-05 07:20:41 51°20.89 3°3.563 -999 3.974053 31.286873 -0.005933
2005-10-05 07:20:46 51°20.896 3°3.584 -999 3.974053 31.286873 -0.005933
2005-10-05 07:20:51 51°20.902 3°3.605 -999 3.973949 31.285964 0.027777
2005-10-05 07:20:56 51°20.908 3°3.627 -999 3.973845 31.285055 0.095195
2005-10-05 07:21:00 51°20.913 3°3.644 -999 3.973845 31.285055 0.128905
2005-10-05 07:21:06 51°20.92 3°3.67 -999 3.973949 31.284028 0.162614
2005-10-05 07:21:11 51°20.926 3°3.691 -999 3.97426 31.283529 0.196324
2005-10-05 07:21:16 51°20.933 3°3.713 -999 3.97426 31.283529 0.196324
2005-10-05 07:21:20 51°20.937 3°3.73 -999 3.974467 31.283411 0.263742
2005-10-05 07:21:26 51°20.945 3°3.756 -999 3.974467 31.283411 0.297452
2005-10-05 07:21:31 51°20.951 3°3.777 -999 3.974571 31.28432 0.364871
2005-10-05 07:21:36 51°20.956 3°3.799 -999 3.974674 31.285229 0.39858
2005-10-05 07:21:40 51°20.962 3°3.816 -999 3.974985 31.28602 0.465999
2005-10-05 07:21:46 51°20.969 3°3.842 -999 3.974985 31.28602 0.465999
2005-10-05 07:21:51 51°20.975 3°3.863 -999 3.975193 31.286547 0.499708
2005-10-05 07:21:56 51°20.98 3°3.885 -999 3.9754 31.287719 0.499708
2005-10-05 07:22:00 51°20.985 3°3.902 -999 3.975607 31.289537 0.465999
2005-10-05 07:22:06 51°20.992 3°3.929 -999 3.975711 31.290446 0.432289
2005-10-05 07:22:11 51°20.997 3°3.951 -999 3.975815 31.290709 0.39858
2005-10-05 07:22:16 51°21.003 3°3.973 -999 3.975815 31.290709 0.39858
2005-10-05 07:22:20 51°21.008 3°3.991 -999 3.975815 31.289419 0.364871
2005-10-05 07:22:26 51°21.014 3°4.017 -999 3.976229 31.291764 0.331161
2005-10-05 07:22:31 51°21.02 3°4.039 -999 3.976436 31.291646 0.263742
2005-10-05 07:22:36 51°21.026 3°4.06 -999 3.976436 31.291646 0.263742
2005-10-05 07:22:40 51°21.031 3°4.078 -999 3.97654 31.291909 0.230033
2005-10-05 07:22:46 51°21.038 3°4.104 -999 3.97654 31.291909 0.230033
2005-10-05 07:22:52 51°21.046 3°4.131 -999 3.97654 31.290619 0.230033
2005-10-05 07:22:56 51°21.051 3°4.148 -999 3.97654 31.289329 0.263742
2005-10-05 07:23:00 51°21.056 3°4.165 -999 3.976436 31.289065 0.297452
2005-10-05 07:23:06 51°21.063 3°4.191 -999 3.97654 31.289329 0.297452
2005-10-05 07:23:12 51°21.071 3°4.217 -999 3.97654 31.288684 0.331161
2005-10-05 07:23:16 51°21.076 3°4.234 -999 3.97654 31.288684 0.331161
2005-10-05 07:23:20 51°21.081 3°4.251 -999 3.976644 31.288302 0.364871
2005-10-05 07:23:26 51°21.088 3°4.278 -999 3.976644 31.287658 0.39858
2005-10-05 07:23:31 51°21.094 3°4.3 -999 3.976851 31.288185 0.432289
2005-10-05 07:23:36 51°21.099 3°4.322 -999 3.977058 31.289357 0.465999
2005-10-05 07:23:40 51°21.104 3°4.34 -999 3.977162 31.290265 0.499708
2005-10-05 07:23:46 51°21.111 3°4.366 -999 3.977162 31.290265 0.499708
2005-10-05 07:23:51 51°21.116 3°4.388 -999 3.977369 31.291437 0.499708
2005-10-05 07:23:56 51°21.122 3°4.411 -999 3.977473 31.292346 0.499708
2005-10-05 07:24:00 51°21.127 3°4.428 -999 3.97768 31.294163 0.499708
2005-10-05 07:24:06 51°21.134 3°4.455 -999 3.977887 31.29469 0.499708
2005-10-05 07:24:11 51°21.139 3°4.477 -999 3.977784 31.293137 0.465999
2005-10-05 07:24:16 51°21.146 3°4.499 -999 3.977784 31.293137 0.465999
2005-10-05 07:24:20 51°21.15 3°4.517 -999 3.97768 31.290938 0.465999
2005-10-05 07:24:26 51°21.158 3°4.543 -999 3.977473 31.289121 0.465999
2005-10-05 07:24:31 51°21.164 3°4.565 -999 3.977991 31.293664 0.465999
2005-10-05 07:24:36 51°21.171 3°4.587 -999 3.978302 31.296389 0.499708
2005-10-05 07:24:41 51°21.177 3°4.608 -999 3.978509 31.298206 0.499708
2005-10-05 07:24:46 51°21.184 3°4.63 -999 3.978509 31.298206 0.499708
2005-10-05 07:24:51 51°21.19 3°4.652 -999 3.978613 31.299759 0.499708
2005-10-05 07:24:56 51°21.196 3°4.674 -999 3.978095 31.295217 0.499708
2005-10-05 07:25:00 51°21.201 3°4.692 -999 3.978095 31.295217 0.499708
2005-10-05 07:25:06 51°21.208 3°4.719 -999 3.978509 31.298851 0.499708
2005-10-05 07:25:12 51°21.216 3°4.746 -999 3.978716 31.300023 0.499708
2005-10-05 07:25:16 51°21.22 3°4.763 -999 3.978716 31.300023 0.499708
2005-10-05 07:25:20 51°21.225 3°4.781 -999 3.978613 31.298469 0.499708
2005-10-05 07:25:26 51°21.232 3°4.809 -999 3.979027 31.301458 0.499708
2005-10-05 07:25:31 51°21.238 3°4.831 -999 3.979235 31.30392 0.499708
2005-10-05 07:25:36 51°21.244 3°4.854 -999 3.979546 31.30729 0.499708
2005-10-05 07:25:40 51°21.248 3°4.872 -999 3.979649 31.306908 0.499708
2005-10-05 07:25:46 51°21.255 3°4.899 -999 3.979649 31.306908 0.499708
2005-10-05 07:25:51 51°21.262 3°4.921 -999 3.980271 31.311714 0.465999
2005-10-05 07:25:56 51°21.268 3°4.943 -999 3.9811 31.318982 0.465999
2005-10-05 07:26:01 51°21.275 3°4.965 -999 3.980271 31.312359 0.465999
2005-10-05 07:26:06 51°21.281 3°4.986 -999 3.981204 31.321181 0.432289
2005-10-05 07:26:11 51°21.288 3°5.008 -999 3.980271 31.31365 0.39858
2005-10-05 07:26:16 51°21.295 3°5.031 -999 3.980271 31.31365 0.39858
2005-10-05 07:26:20 51°21.3 3°5.048 -999 3.982241 31.332204 0.39858
2005-10-05 07:26:26 51°21.308 3°5.075 -999 3.98079 31.320774 0.364871
2005-10-05 07:26:31 51°21.314 3°5.096 -999 3.981826 31.329861 0.364871
2005-10-05 07:26:36 51°21.319 3°5.12 -999 3.984314 31.351023 0.331161
2005-10-05 07:26:40 51°21.324 3°5.137 -999 3.985247 31.357909 0.297452
2005-10-05 07:26:46 51°21.331 3°5.165 -999 3.985247 31.357909 0.297452
2005-10-05 07:26:51 51°21.337 3°5.187 -999 3.986179 31.365441 0.263742
2005-10-05 07:26:56 51°21.343 3°5.209 -999 3.987527 31.376609 0.196324
2005-10-05 07:27:01 51°21.349 3°5.232 -999 3.989704 31.395694 0.196324
2005-10-05 07:27:06 51°21.355 3°5.253 -999 3.990636 31.403227 0.128905
2005-10-05 07:27:11 51°21.362 3°5.275 -999 3.990636 31.403874 0.128905
2005-10-05 07:27:16 51°21.369 3°5.297 -999 3.990636 31.403874 0.128905
2005-10-05 07:27:21 51°21.376 3°5.318 -999 3.992502 31.42153 0.128905
2005-10-05 07:27:26 51°21.383 3°5.34 -999 3.993124 31.427631 0.128905
2005-10-05 07:27:31 51°21.39 3°5.361 -999 3.993331 31.430097 0.128905
2005-10-05 07:27:36 51°21.396 3°5.383 -999 3.994368 31.439836 0.095195
2005-10-05 07:27:40 51°21.402 3°5.4 -999 3.995508 31.451134 0.095195
2005-10-05 07:27:46 51°21.41 3°5.427 -999 3.995508 31.451134 0.095195
2005-10-05 07:27:51 51°21.416 3°5.449 -999 3.996545 31.460226 0.095195
2005-10-05 07:27:56 51°21.422 3°5.471 -999 3.996441 31.459317 0.095195
2005-10-05 07:28:00 51°21.427 3°5.489 -999 3.99727 31.466591 0.095195
2005-10-05 07:28:06 51°21.433 3°5.517 -999 3.997892 31.471398 0.095195
2005-10-05 07:28:11 51°21.439 3°5.539 -999 3.998307 31.475035 0.061486
2005-10-05 07:28:16 51°21.444 3°5.562 -999 3.998307 31.475035 0.061486
2005-10-05 07:28:20 51°21.449 3°5.58 -999 3.9981 31.471919 0.061486
2005-10-05 07:28:26 51°21.455 3°5.607 -999 4.000276 31.491663 0.061486
2005-10-05 07:28:31 51°21.461 3°5.63 -999 3.998929 31.480491 0.061486
2005-10-05 07:28:36 51°21.467 3°5.652 -999 3.999136 31.481661 0.061486
2005-10-05 07:28:40 51°21.472 3°5.67 -999 4.000587 31.495041 0.061486
2005-10-05 07:28:46 51°21.48 3°5.696 -999 4.000587 31.495041 0.061486
2005-10-05 07:28:51 51°21.486 3°5.718 -999 3.999965 31.488286 0.061486
2005-10-05 07:28:56 51°21.493 3°5.739 -999 4.000691 31.494652 0.095195
2005-10-05 07:29:01 51°21.499 3°5.762 -999 3.999862 31.489973 0.095195
2005-10-05 07:29:06 51°21.505 3°5.784 -999 3.99924 31.486464 0.061486
2005-10-05 07:29:11 51°21.512 3°5.806 -999 3.998618 31.481007 0.061486
2005-10-05 07:29:16 51°21.518 3°5.829 -999 3.998618 31.481007 0.061486
2005-10-05 07:29:20 51°21.522 3°5.847 -999 3.998514 31.480747 0.061486
2005-10-05 07:29:26 51°21.529 3°5.873 -999 3.998618 31.482306 0.061486
2005-10-05 07:29:31 51°21.535 3°5.896 -999 3.998307 31.478928 0.061486
2005-10-05 07:29:36 51°21.541 3°5.918 -999 3.998514 31.480098 0.027777
2005-10-05 07:29:40 51°21.545 3°5.936 -999 3.997892 31.473344 0.027777
2005-10-05 07:29:46 51°21.552 3°5.963 -999 3.997892 31.473344 0.027777
2005-10-05 07:29:51 51°21.559 3°5.985 -999 3.997063 31.466718 -0.005933
2005-10-05 07:29:56 51°21.566 3°6.007 -999 3.996959 31.46516 -0.005933
2005-10-05 07:30:01 51°21.572 3°6.029 -999 3.996337 31.459056 -0.039642
2005-10-05 07:30:06 51°21.579 3°6.051 -999 3.996752 31.462693 -0.039642
2005-10-05 07:30:12 51°21.587 3°6.077 -999 3.996752 31.462693 -0.073352
2005-10-05 07:30:16 51°21.592 3°6.094 -999 3.996752 31.462693 -0.073352
2005-10-05 07:30:20 51°21.598 3°6.112 -999 3.995716 31.454249 -0.073352
2005-10-05 07:30:26 51°21.606 3°6.138 -999 3.99613 31.457237 -0.073352
2005-10-05 07:30:31 51°21.613 3°6.16 -999 3.994679 31.44386 -0.073352
2005-10-05 07:30:36 51°21.619 3°6.182 -999 3.994472 31.441393 -0.073352
2005-10-05 07:30:40 51°21.624 3°6.2 -999 3.994264 31.440223 -0.073352
2005-10-05 07:30:46 51°21.632 3°6.227 -999 3.994264 31.440223 -0.073352
2005-10-05 07:30:51 51°21.637 3°6.249 -999 3.99385 31.437235 -0.073352
2005-10-05 07:30:56 51°21.643 3°6.272 -999 3.991984 31.419575 -0.073352
2005-10-05 07:31:00 51°21.648 3°6.29 -999 3.993124 31.427631 -0.107061
2005-10-05 07:31:06 51°21.654 3°6.318 -999 3.991362 31.410883 -0.107061
2005-10-05 07:31:11 51°21.659 3°6.341 -999 3.992191 31.417508 -0.073352
2005-10-05 07:31:16 51°21.663 3°6.365 -999 3.992191 31.417508 -0.073352
2005-10-05 07:31:20 51°21.667 3°6.383 -999 3.991362 31.409589 -0.073352
2005-10-05 07:31:26 51°21.672 3°6.412 -999 3.990222 31.39765 -0.073352
2005-10-05 07:31:31 51°21.676 3°6.435 -999 3.989807 31.392721 -0.073352
2005-10-05 07:31:36 51°21.681 3°6.458 -999 3.9896 31.388963 -0.039642
2005-10-05 07:31:40 51°21.684 3°6.477 -999 3.989496 31.386114 -0.039642
2005-10-05 07:31:46 51°21.69 3°6.505 -999 3.989496 31.386114 -0.039642
2005-10-05 07:31:52 51°21.696 3°6.532 -999 3.989185 31.383388 -0.039642
2005-10-05 07:31:56 51°21.7 3°6.551 -999 3.988771 31.379108 -0.039642
2005-10-05 07:32:00 51°21.705 3°6.57 -999 3.987423 31.367943 -0.039642
2005-10-05 07:32:06 51°21.71 3°6.597 -999 3.986801 31.361845 -0.039642
2005-10-05 07:32:11 51°21.716 3°6.62 -999 3.986905 31.362754 -0.005933
2005-10-05 07:32:16 51°21.72 3°6.644 -999 3.986905 31.362754 -0.005933
2005-10-05 07:32:21 51°21.726 3°6.666 -999 3.987423 31.36665 -0.005933
2005-10-05 07:32:26 51°21.731 3°6.689 -999 3.986179 31.355103 -0.005933
2005-10-05 07:32:31 51°21.736 3°6.712 -999 3.986283 31.355365 -0.005933
2005-10-05 07:32:36 51°21.741 3°6.736 -999 3.985765 31.350177 -0.005933
2005-10-05 07:32:40 51°21.745 3°6.755 -999 3.98421 31.336552 -0.005933
2005-10-05 07:32:46 51°21.751 3°6.782 -999 3.98421 31.336552 -0.005933
2005-10-05 07:32:51 51°21.756 3°6.806 -999 3.984417 31.337078 -0.005933
2005-10-05 07:32:56 51°21.76 3°6.829 -999 3.985143 31.342144 -0.005933
2005-10-05 07:33:01 51°21.765 3°6.853 -999 3.985246 31.341762 -0.039642
2005-10-05 07:33:06 51°21.77 3°6.876 -999 3.98535 31.342024 -0.005933
2005-10-05 07:33:11 51°21.774 3°6.9 -999 3.984521 31.334113 -0.005933
2005-10-05 07:33:16 51°21.779 3°6.923 -999 3.984521 31.334113 -0.005933
2005-10-05 07:33:21 51°21.784 3°6.947 -999 3.986075 31.346445 -0.005933
2005-10-05 07:33:26 51°21.788 3°6.97 -999 3.985454 31.340996 -0.005933
2005-10-05 07:33:31 51°21.792 3°6.994 -999 3.987423 31.358252 0.027777
2005-10-05 07:33:36 51°21.796 3°7.018 -999 3.987216 31.356436 0.027777
2005-10-05 07:33:40 51°21.8 3°7.037 -999 3.986905 31.353711 0.027777
2005-10-05 07:33:46 51°21.805 3°7.066 -999 3.986905 31.353711 0.027777
2005-10-05 07:33:52 51°21.81 3°7.095 -999 3.988045 31.363702 0.027777
2005-10-05 07:33:56 51°21.814 3°7.114 -999 3.987216 31.355144 0.027777
2005-10-05 07:34:00 51°21.818 3°7.133 -999 3.989392 31.373571 -0.005933
2005-10-05 07:34:06 51°21.823 3°7.161 -999 3.989185 31.371755 0.027777
2005-10-05 07:34:12 51°21.828 3°7.189 -999 3.989496 31.374479 0.027777
2005-10-05 07:34:16 51°21.832 3°7.208 -999 3.989496 31.374479 0.027777
2005-10-05 07:34:20 51°21.836 3°7.227 -999 3.989911 31.378759 0.027777
2005-10-05 07:34:26 51°21.842 3°7.255 -999 3.990014 31.379021 0.027777
2005-10-05 07:34:31 51°21.847 3°7.279 -999 3.991051 31.388104 0.027777
2005-10-05 07:34:36 51°21.851 3°7.302 -999 3.991465 31.391091 0.027777
2005-10-05 07:34:40 51°21.856 3°7.321 -999 3.991673 31.392908 0.061486
2005-10-05 07:34:46 51°21.861 3°7.349 -999 3.991673 31.392908 0.061486
2005-10-05 07:34:51 51°21.866 3°7.373 -999 3.992295 31.398358 0.061486
2005-10-05 07:34:56 51°21.871 3°7.396 -999 3.992813 31.401606 0.061486
2005-10-05 07:35:01 51°21.876 3°7.42 -999 3.992813 31.40096 0.061486
2005-10-05 07:35:06 51°21.88 3°7.443 -999 3.991569 31.389414 0.061486
2005-10-05 07:35:11 51°21.885 3°7.467 -999 3.991465 31.387859 0.061486
2005-10-05 07:35:16 51°21.89 3°7.491 -999 3.991465 31.387859 0.061486
2005-10-05 07:35:20 51°21.894 3°7.509 -999 3.991258 31.386689 0.027777
2005-10-05 07:35:26 51°21.901 3°7.537 -999 3.991258 31.386689 0.027777
2005-10-05 07:35:31 51°21.906 3°7.56 -999 3.990947 31.38461 0.027777
2005-10-05 07:35:36 51°21.911 3°7.584 -999 3.990843 31.383702 0.027777
2005-10-05 07:35:40 51°21.915 3°7.602 -999 3.991776 31.393169 0.061486
2005-10-05 07:35:46 51°21.921 3°7.63 -999 3.991776 31.393169 0.061486
2005-10-05 07:35:51 51°21.926 3°7.654 -999 3.990532 31.38227 0.061486
2005-10-05 07:35:56 51°21.931 3°7.677 -999 3.990843 31.385641 0.061486
2005-10-05 07:36:02 51°21.936 3°7.706 -999 3.99074 31.385379 0.061486
2005-10-05 07:36:06 51°21.939 3°7.725 -999 3.99074 31.386025 0.027777
2005-10-05 07:36:11 51°21.943 3°7.749 -999 3.991051 31.388104 0.027777
2005-10-05 07:36:16 51°21.948 3°7.773 -999 3.991051 31.388104 0.027777
2005-10-05 07:36:21 51°21.952 3°7.797 -999 3.990843 31.384995 0.061486
2005-10-05 07:36:26 51°21.956 3°7.82 -999 3.99074 31.38344 0.061486
2005-10-05 07:36:31 51°21.961 3°7.843 -999 3.990118 31.377344 0.061486
2005-10-05 07:36:36 51°21.966 3°7.867 -999 3.991362 31.38889 0.061486
2005-10-05 07:36:41 51°21.97 3°7.89 -999 3.98763 31.35684 0.061486
2005-10-05 07:36:46 51°21.976 3°7.914 -999 3.98763 31.35684 0.061486
2005-10-05 07:36:51 51°21.981 3°7.937 -999 3.989392 31.372925 0.027777
2005-10-05 07:36:56 51°21.986 3°7.96 -999 3.988148 31.36138 0.027777
2005-10-05 07:37:00 51°21.99 3°7.979 -999 3.989703 31.375004 0.027777
2005-10-05 07:37:06 51°21.996 3°8.007 -999 3.988667 31.366567 0.027777
2005-10-05 07:37:11 51°22.002 3°8.03 -999 3.987837 31.359948 0.027777
2005-10-05 07:37:16 51°22.006 3°8.054 -999 3.987837 31.359948 0.027777
2005-10-05 07:37:20 51°22.011 3°8.072 -999 3.989289 31.373309 0.027777
2005-10-05 07:37:26 51°22.016 3°8.101 -999 3.990118 31.380575 0.027777
2005-10-05 07:37:31 51°22.021 3°8.124 -999 3.988148 31.363964 0.027777
2005-10-05 07:37:36 51°22.026 3°8.148 -999 3.98877 31.369414 0.027777
2005-10-05 07:37:40 51°22.03 3°8.166 -999 3.989703 31.377588 0.027777
2005-10-05 07:37:46 51°22.036 3°8.195 -999 3.989703 31.377588 0.027777
2005-10-05 07:37:51 51°22.042 3°8.218 -999 3.99188 31.397311 0.061486
2005-10-05 07:37:56 51°22.047 3°8.241 -999 3.989911 31.380051 0.061486
2005-10-05 07:38:01 51°22.052 3°8.264 -999 3.990532 31.385501 0.061486
2005-10-05 07:38:06 51°22.057 3°8.288 -999 3.991465 31.394324 0.061486
2005-10-05 07:38:11 51°22.063 3°8.311 -999 3.993227 31.410414 0.095195
2005-10-05 07:38:16 51°22.068 3°8.335 -999 3.993227 31.410414 0.095195
2005-10-05 07:38:20 51°22.072 3°8.353 -999 3.993953 31.416774 0.095195
2005-10-05 07:38:26 51°22.077 3°8.382 -999 3.993435 31.413525 0.095195
2005-10-05 07:38:31 51°22.082 3°8.406 -999 3.993849 31.418454 0.061486
2005-10-05 07:38:36 51°22.087 3°8.429 -999 3.994886 31.42754 0.061486
2005-10-05 07:38:40 51°22.091 3°8.448 -999 3.993228 31.41365 0.061486
2005-10-05 07:38:46 51°22.096 3°8.476 -999 3.993228 31.41365 0.061486
2005-10-05 07:38:51 51°22.101 3°8.5 -999 3.996544 31.443375 0.027777
2005-10-05 07:38:56 51°22.105 3°8.524 -999 3.997581 31.453111 0.027777
2005-10-05 07:39:01 51°22.11 3°8.547 -999 3.996545 31.445966 0.027777
2005-10-05 07:39:06 51°22.114 3°8.571 -999 3.996856 31.449988 -0.005933
2005-10-05 07:39:11 51°22.119 3°8.595 -999 3.997581 31.456999 -0.005933
2005-10-05 07:39:16 51°22.124 3°8.618 -999 3.997581 31.456999 -0.005933
2005-10-05 07:39:20 51°22.128 3°8.637 -999 3.99841 31.464919 -0.005933
2005-10-05 07:39:26 51°22.133 3°8.666 -999 3.997477 31.458683 -0.005933
2005-10-05 07:39:31 51°22.138 3°8.689 -999 3.998825 31.472446 -0.039642
2005-10-05 07:39:36 51°22.143 3°8.713 -999 4.001313 31.495564 -0.039642
2005-10-05 07:39:40 51°22.147 3°8.732 -999 4.000069 31.485302 -0.073352
2005-10-05 07:39:46 51°22.152 3°8.76 -999 4.000069 31.485302 -0.073352
2005-10-05 07:39:51 51°22.157 3°8.784 -999 4.000069 31.4866 -0.073352
2005-10-05 07:39:56 51°22.161 3°8.808 -999 4.002764 31.51219 -0.107061
2005-10-05 07:40:01 51°22.166 3°8.831 -999 4.001417 31.501666 -0.107061
2005-10-05 07:40:06 51°22.17 3°8.855 -999 4.002971 31.515958 -0.107061
2005-10-05 07:40:11 51°22.175 3°8.878 -999 4.00349 31.521805 -0.107061
2005-10-05 07:40:16 51°22.18 3°8.902 -999 4.00349 31.521805 -0.107061
2005-10-05 07:40:20 51°22.183 3°8.921 -999 4.003386 31.522195 -0.107061
2005-10-05 07:40:26 51°22.189 3°8.949 -999 4.003179 31.520376 -0.107061
2005-10-05 07:40:31 51°22.194 3°8.973 -999 4.00463 31.53441 -0.14077
2005-10-05 07:40:36 51°22.198 3°8.996 -999 4.003282 31.524535 -0.14077
2005-10-05 07:40:40 51°22.202 3°9.015 -999 4.004941 31.54039 -0.14077
2005-10-05 07:40:46 51°22.208 3°9.043 -999 4.004941 31.54039 -0.14077
2005-10-05 07:40:51 51°22.212 3°9.067 -999 4.004423 31.537142 -0.107061
2005-10-05 07:40:56 51°22.218 3°9.09 -999 4.003904 31.533244 -0.107061
2005-10-05 07:41:01 51°22.222 3°9.114 -999 4.005045 31.543251 -0.107061
2005-10-05 07:41:06 51°22.226 3°9.137 -999 4.004423 31.537142 -0.107061
2005-10-05 07:41:12 51°22.232 3°9.166 -999 4.004526 31.538702 -0.14077
2005-10-05 07:41:16 51°22.235 3°9.185 -999 4.004526 31.538702 -0.14077
2005-10-05 07:41:20 51°22.238 3°9.204 -999 4.005978 31.552091 -0.14077
2005-10-05 07:41:26 51°22.242 3°9.233 -999 4.004837 31.543383 -0.14077
2005-10-05 07:41:31 51°22.247 3°9.257 -999 4.00577 31.552223 -0.17448
2005-10-05 07:41:36 51°22.25 3°9.281 -999 4.005563 31.551704 -0.208189
2005-10-05 07:41:40 51°22.253 3°9.299 -999 4.004837 31.547287 -0.208189
2005-10-05 07:41:46 51°22.258 3°9.328 -999 4.004837 31.547287 -0.208189
2005-10-05 07:41:51 51°22.262 3°9.351 -999 4.005978 31.558599 -0.17448
2005-10-05 07:41:56 51°22.265 3°9.375 -999 4.004423 31.545599 -0.17448
2005-10-05 07:42:01 51°22.269 3°9.399 -999 4.0066 31.565361 -0.17448
2005-10-05 07:42:06 51°22.272 3°9.423 -999 4.00349 31.538059 -0.17448
2005-10-05 07:42:11 51°22.276 3°9.447 -999 4.004734 31.548329 -0.17448
2005-10-05 07:42:16 51°22.279 3°9.471 -999 4.004734 31.548329 -0.17448
2005-10-05 07:42:20 51°22.282 3°9.49 -999 4.005252 31.552879 -0.208189
2005-10-05 07:42:26 51°22.287 3°9.518 -999 4.005356 31.553138 -0.241899
2005-10-05 07:42:31 51°22.29 3°9.542 -999 4.005356 31.55444 -0.241899
2005-10-05 07:42:36 51°22.294 3°9.566 -999 4.004527 31.549112 -0.275608
2005-10-05 07:42:40 51°22.298 3°9.584 -999 4.002246 31.52909 -0.275608
2005-10-05 07:42:46 51°22.302 3°9.613 -999 4.002246 31.52909 -0.275608
2005-10-05 07:42:51 51°22.306 3°9.637 -999 4.002557 31.533121 -0.275608
2005-10-05 07:42:56 51°22.311 3°9.66 -999 4.001624 31.524931 -0.309317
2005-10-05 07:43:02 51°22.315 3°9.689 -999 4.002039 31.52792 -0.309317
2005-10-05 07:43:06 51°22.318 3°9.708 -999 4.000899 31.51791 -0.275608
2005-10-05 07:43:12 51°22.323 3°9.736 -999 4.000795 31.51635 -0.309317
2005-10-05 07:43:16 51°22.326 3°9.755 -999 4.000795 31.51635 -0.309317
2005-10-05 07:43:20 51°22.329 3°9.774 -999 4.000899 31.51661 -0.309317
2005-10-05 07:43:26 51°22.334 3°9.802 -999 3.999862 31.507511 -0.309317
2005-10-05 07:43:31 51°22.338 3°9.826 -999 3.999655 31.505041 -0.309317
2005-10-05 07:43:36 51°22.341 3°9.85 -999 3.999966 31.507771 -0.309317
2005-10-05 07:43:40 51°22.344 3°9.869 -999 3.997893 31.489573 -0.343027
2005-10-05 07:43:46 51°22.348 3°9.898 -999 3.997893 31.489573 -0.343027
2005-10-05 07:43:51 51°22.35 3°9.922 -999 3.995508 31.468648 -0.343027
2005-10-05 07:43:56 51°22.353 3°9.946 -999 3.996338 31.474628 -0.343027
2005-10-05 07:44:01 51°22.355 3°9.971 -999 3.996027 31.471899 -0.376736
2005-10-05 07:44:06 51°22.358 3°9.995 -999 3.996856 31.478527 -0.376736
2005-10-05 07:44:11 51°22.361 3°10.019 -999 3.994472 31.455658 -0.376736
2005-10-05 07:44:16 51°22.364 3°10.043 -999 3.994472 31.455658 -0.376736
2005-10-05 07:44:20 51°22.367 3°10.062 -999 3.993954 31.450462 -0.376736
2005-10-05 07:44:26 51°22.371 3°10.091 -999 3.994886 31.458648 -0.376736
2005-10-05 07:44:31 51°22.374 3°10.115 -999 3.994265 31.453191 -0.376736
2005-10-05 07:44:36 51°22.378 3°10.139 -999 3.991984 31.433182 -0.376736
2005-10-05 07:44:40 51°22.38 3°10.158 -999 3.991673 31.429805 -0.376736
2005-10-05 07:44:46 51°22.382 3°10.188 -999 3.991673 31.429805 -0.376736
2005-10-05 07:44:51 51°22.384 3°10.213 -999 3.991777 31.430066 -0.376736
2005-10-05 07:44:56 51°22.384 3°10.237 -999 3.991777 31.42877 -0.376736
2005-10-05 07:45:02 51°22.386 3°10.267 -999 3.989911 31.411107 -0.410446
2005-10-05 07:45:06 51°22.386 3°10.287 -999 3.991155 31.420074 -0.376736
2005-10-05 07:45:11 51°22.386 3°10.312 -999 3.991051 31.417222 -0.376736
2005-10-05 07:45:16 51°22.386 3°10.336 -999 3.991051 31.417222 -0.376736
2005-10-05 07:45:20 51°22.386 3°10.356 -999 3.99074 31.411256 -0.376736
2005-10-05 07:45:26 51°22.388 3°10.387 -999 3.989807 31.401133 -0.410446
2005-10-05 07:45:31 51°22.388 3°10.412 -999 3.988771 31.392043 -0.410446
2005-10-05 07:45:36 51°22.388 3°10.438 -999 3.98846 31.388022 -0.410446
2005-10-05 07:45:40 51°22.389 3°10.458 -999 3.988149 31.384002 -0.376736
2005-10-05 07:45:46 51°22.389 3°10.488 -999 3.988149 31.384002 -0.376736
2005-10-05 07:45:51 51°22.389 3°10.514 -999 3.987216 31.373882 -0.376736
2005-10-05 07:45:56 51°22.389 3°10.539 -999 3.987009 31.371418 -0.376736
2005-10-05 07:46:01 51°22.389 3°10.564 -999 3.986179 31.363502 -0.410446
2005-10-05 07:46:06 51°22.388 3°10.59 -999 3.985143 31.354416 -0.376736
2005-10-05 07:46:12 51°22.388 3°10.62 -999 3.983795 31.342604 -0.410446
2005-10-05 07:46:16 51°22.388 3°10.641 -999 3.983795 31.342604 -0.410446
2005-10-05 07:46:20 51°22.388 3°10.661 -999 3.983381 31.338324 -0.376736
2005-10-05 07:46:26 51°22.387 3°10.691 -999 3.980582 31.313149 -0.376736
2005-10-05 07:46:31 51°22.388 3°10.717 -999 3.982655 31.330673 -0.376736
2005-10-05 07:46:36 51°22.388 3°10.742 -999 3.981515 31.318743 -0.376736
2005-10-05 07:46:40 51°22.388 3°10.763 -999 3.981411 31.317835 -0.376736
2005-10-05 07:46:46 51°22.389 3°10.793 -999 3.981411 31.317835 -0.376736
2005-10-05 07:46:51 51°22.389 3°10.818 -999 3.97996 31.305118 -0.376736
2005-10-05 07:46:56 51°22.389 3°10.844 -999 3.980686 31.310831 -0.376736
2005-10-05 07:47:01 51°22.39 3°10.869 -999 3.979131 31.295272 -0.376736
2005-10-05 07:47:06 51°22.389 3°10.894 -999 3.979856 31.299696 -0.343027
2005-10-05 07:47:11 51°22.389 3°10.919 -999 3.979442 31.292195 -0.343027
2005-10-05 07:47:16 51°22.39 3°10.944 -999 3.979442 31.292195 -0.343027
2005-10-05 07:47:20 51°22.391 3°10.964 -999 3.979545 31.293103 -0.343027
2005-10-05 07:47:26 51°22.394 3°10.993 -999 3.979027 31.287918 -0.343027
2005-10-05 07:47:31 51°22.397 3°11.017 -999 3.976643 31.265747 -0.343027
2005-10-05 07:47:36 51°22.401 3°11.041 -999 3.97882 31.283525 -0.309317
2005-10-05 07:47:41 51°22.406 3°11.065 -999 3.977576 31.27263 -0.309317
2005-10-05 07:47:46 51°22.411 3°11.088 -999 3.977576 31.27263 -0.309317
2005-10-05 07:47:51 51°22.416 3°11.112 -999 3.976229 31.261472 -0.309317
2005-10-05 07:47:56 51°22.421 3°11.135 -999 3.976954 31.267183 -0.309317
2005-10-05 07:48:00 51°22.425 3°11.154 -999 3.974985 31.249934 -0.275608
2005-10-05 07:48:06 51°22.431 3°11.183 -999 3.974674 31.247854 -0.275608
2005-10-05 07:48:12 51°22.438 3°11.21 -999 3.973741 31.239041 -0.275608
2005-10-05 07:48:16 51°22.442 3°11.229 -999 3.973741 31.239041 -0.275608
2005-10-05 07:48:20 51°22.446 3°11.248 -999 3.975399 31.252278 -0.275608
2005-10-05 07:48:26 51°22.453 3°11.276 -999 3.97571 31.25307 -0.275608
2005-10-05 07:48:31 51°22.458 3°11.3 -999 3.974467 31.242178 -0.275608
2005-10-05 07:48:36 51°22.463 3°11.324 -999 3.974777 31.244901 -0.275608
2005-10-05 07:48:40 51°22.468 3°11.342 -999 3.972601 31.225197 -0.275608
2005-10-05 07:48:46 51°22.474 3°11.37 -999 3.972601 31.225197 -0.275608
2005-10-05 07:48:51 51°22.479 3°11.394 -999 3.973637 31.232987 -0.275608
2005-10-05 07:48:56 51°22.483 3°11.418 -999 3.973637 31.232344 -0.275608
2005-10-05 07:49:01 51°22.488 3°11.442 -999 3.97229 31.220546 -0.241899
2005-10-05 07:49:06 51°22.493 3°11.466 -999 3.972704 31.223533 -0.241899
2005-10-05 07:49:11 51°22.497 3°11.49 -999 3.972393 31.220168 -0.241899
2005-10-05 07:49:16 51°22.501 3°11.513 -999 3.972393 31.220168 -0.241899
2005-10-05 07:49:20 51°22.506 3°11.532 -999 3.970839 31.205271 -0.241899
2005-10-05 07:49:26 51°22.511 3°11.56 -999 3.970735 31.203079 -0.241899
2005-10-05 07:49:31 51°22.516 3°11.584 -999 3.971046 31.205801 -0.208189
2005-10-05 07:49:36 51°22.522 3°11.607 -999 3.97032 31.19945 -0.208189
2005-10-05 07:49:40 51°22.526 3°11.626 -999 3.970217 31.198542 -0.208189
2005-10-05 07:49:46 51°22.532 3°11.654 -999 3.970217 31.198542 -0.208189
2005-10-05 07:49:51 51°22.536 3°11.678 -999 3.96918 31.189469 -0.208189
2005-10-05 07:49:56 51°22.542 3°11.701 -999 3.967522 31.175595 -0.208189
2005-10-05 07:50:01 51°22.547 3°11.725 -999 3.967626 31.177786 -0.17448
2005-10-05 07:50:06 51°22.552 3°11.748 -999 3.967729 31.178693 -0.17448
2005-10-05 07:50:11 51°22.557 3°11.772 -999 3.966796 31.169886 -0.17448
2005-10-05 07:50:16 51°22.561 3°11.796 -999 3.966796 31.169886 -0.17448
2005-10-05 07:50:20 51°22.565 3°11.815 -999 3.967522 31.174953 -0.17448
2005-10-05 07:50:26 51°22.571 3°11.844 -999 3.965449 31.157451 -0.17448
2005-10-05 07:50:31 51°22.576 3°11.867 -999 3.964724 31.152384 -0.14077
2005-10-05 07:50:36 51°22.581 3°11.891 -999 3.965656 31.161832 -0.14077